GFSFLT1_850_spd_000.txt.gz
Wind_Speed
6 10 9 10 10 10 7 9 11 9 11 12 10 13 15 13 13 10 8 10 9 9 8 8 10 11 11 10 9 8 7 7 9
9 10 11 13 9 9 9 8 9 11 11 11 12 12 16 15 15 15 13 11 10 10 10 11 11 11 11 10 9 8 7 6 7
11 14 13 13 12 9 9 10 10 11 11 12 13 13 17 16 17 16 15 15 14 13 14 13 13 13 12 12 11 10 9 8 8
13 14 14 14 14 11 12 12 12 13 13 13 14 14 17 17 18 18 17 16 17 15 17 16 16 15 14 14 13 12 12 11 10
8 11 12 13 13 13 12 14 14 15 16 16 16 17 18 21 20 21 21 20 20 19 19 20 19 19 17 17 16 16 15 14 13
10 10 11 11 13 14 14 16 15 16 17 18 18 19 20 21 23 24 24 24 23 23 22 22 23 22 21 20 20 20 18 17 17
10 10 13 14 14 14 15 16 17 19 19 18 19 20 21 23 24 26 26 28 28 27 26 25 26 25 25 24 24 23 22 22 21
12 14 14 15 15 16 17 18 18 19 20 20 21 21 23 24 26 28 28 29 30 31 30 29 28 29 28 28 28 27 27 26 25
14 16 16 17 17 19 19 21 21 22 22 23 24 23 24 25 27 28 29 30 32 33 34 33 30 31 32 32 31 32 31 31 30
17 18 19 21 22 23 24 25 26 27 27 27 28 29 28 27 28 29 29 30 32 34 35 37 36 33 34 36 37 36 36 36 35
19 21 22 24 24 26 27 28 29 31 31 32 32 32 32 32 32 32 32 32 33 36 37 38 40 39 36 37 40 41 40 38 38
22 24 25 25 25 26 28 29 31 33 35 36 36 36 35 35 35 35 35 35 35 35 37 39 41 42 42 40 41 43 43 43 43
22 24 24 26 28 28 30 31 33 34 36 37 38 38 36 36 37 37 38 38 40 39 38 39 40 42 43 43 44 45 46 47 47
24 25 25 27 29 30 31 32 34 35 37 38 38 37 37 36 36 38 39 39 40 43 42 42 42 42 43 45 46 47 48 49 50
23 24 25 26 27 29 30 31 30 32 33 33 36 35 36 36 37 37 36 37 37 37 36 39 42 43 43 44 47 49 49 50 52
18 21 23 23 25 27 27 29 31 31 30 34 36 38 38 37 36 37 33 36 36 34 35 33 33 33 32 34 33 34 41 48 51
14 16 18 19 21 22 23 23 25 28 26 31 33 28 30 32 30 32 36 37 35 37 37 38 37 37 37 37 36 33 32 33 36
13 15 17 18 20 22 23 23 24 25 27 26 28 21 24 33 37 32 35 39 37 40 39 40 41 43 44 43 42 40 39 37 38
15 17 19 21 22 23 24 24 25 26 27 26 25 29 34 33 35 26 28 35 36 36 38 41 41 40 41 42 41 39 39 39 40
20 22 24 25 26 27 28 29 29 29 29 28 30 31 33 32 31 39 32 38 37 39 41 47 48 46 41 40 42 39 37 38 40

GFSFLT1_850_spd_003.txt.gz
Wind_Speed
8 7 5 9 10 10 7 7 10 9 9 12 12 12 15 14 13 11 10 10 10 11 11 10 13 13 13 13 11 10 9 9 11
8 9 9 11 13 10 7 6 7 8 10 12 12 13 15 17 15 15 14 14 12 14 12 13 12 13 14 14 12 11 11 10 11
10 11 11 11 13 12 9 10 11 10 11 11 13 15 14 19 16 17 18 16 16 16 14 16 15 15 15 14 15 13 12 12 12
9 12 11 12 14 13 11 11 13 14 14 13 13 14 15 18 18 19 20 18 17 18 18 17 19 18 17 17 17 16 15 15 14
8 7 10 13 14 14 12 13 14 16 15 15 16 17 17 19 20 20 22 21 21 20 22 19 20 22 21 20 20 19 18 18 18
9 11 12 13 14 15 15 13 15 16 16 16 17 18 19 20 22 23 22 23 24 25 24 24 22 23 25 24 23 23 22 22 21
9 11 12 14 15 16 16 16 16 17 18 19 18 19 20 21 23 24 23 24 26 27 28 28 27 26 27 28 27 26 26 26 25
11 13 15 17 17 18 18 19 19 20 21 21 22 22 22 23 24 24 24 25 27 29 30 31 31 30 29 30 30 30 30 30 29
14 16 17 19 19 20 20 21 22 23 23 24 25 26 26 26 26 27 25 25 27 30 32 33 34 34 33 32 33 34 33 34 33
16 18 18 18 19 20 22 23 24 25 26 27 28 29 30 30 31 31 31 28 28 29 32 34 35 36 36 36 36 37 39 39 37
17 18 18 19 20 21 23 25 26 28 29 30 30 31 32 33 33 35 35 34 33 32 33 34 36 38 39 39 40 40 40 43 43
18 19 20 21 22 22 24 25 27 28 29 31 32 32 33 34 34 36 37 38 39 37 37 37 38 39 40 40 41 43 42 44 46
19 20 21 22 25 26 27 27 28 30 30 31 32 34 33 33 33 33 34 36 37 39 40 39 41 41 41 42 41 43 45 45 49
20 20 20 22 24 25 26 27 28 30 32 32 33 35 33 33 32 32 33 32 32 32 31 32 34 37 41 43 44 46 47 48 49
15 15 17 19 20 21 23 25 26 28 30 31 33 32 31 33 35 35 32 31 31 31 32 31 31 29 29 32 38 44 48 51 52
12 13 14 15 17 19 21 23 25 27 28 31 36 35 34 24 32 24 29 32 36 34 31 32 31 32 31 32 33 34 36 37 42
12 13 15 17 19 21 24 25 28 28 27 25 30 21 31 23 24 38 36 35 32 32 33 35 36 36 35 34 34 36 40 41 42
15 18 20 23 25 27 28 30 30 32 32 29 22 18 19 40 34 30 32 26 28 38 36 32 33 35 36 37 37 37 38 38 41
20 23 25 27 28 28 29 29 29 30 30 31 24 29 31 28 34 24 31 33 26 32 38 44 46 42 40 40 40 37 37 38 37
26 29 31 32 32 31 31 31 30 28 28 27 27 28 27 25 28 43 31 35 30 33 39 39 36 39 38 41 37 34 34 34 33

GFSFLT1_850_spd_006.txt.gz
Wind_Speed
9 8 6 8 11 9 7 6 7 8 9 10 12 10 12 18 11 12 11 13 13 14 13 13 14 15 16 15 14 13 13 12 12
6 12 10 11 12 13 7 6 8 9 9 10 12 12 14 16 11 14 14 13 16 15 14 14 16 15 16 17 16 15 14 13 13
9 12 10 11 12 13 9 9 9 13 14 13 12 13 14 14 14 15 15 17 18 17 17 15 17 18 17 17 17 17 16 15 15
7 8 9 10 12 12 11 10 10 12 14 15 16 14 14 15 14 16 17 18 19 19 18 19 18 20 21 20 20 20 19 18 18
7 7 10 10 12 14 14 14 12 11 14 14 15 16 17 16 15 16 18 22 20 22 22 21 22 21 23 25 23 23 22 22 21
7 8 10 11 12 13 13 14 14 15 16 15 14 16 15 14 15 17 20 22 23 24 25 25 24 25 24 26 28 26 25 25 25
8 9 11 13 13 14 14 14 15 16 14 13 18 15 14 16 17 18 20 20 23 25 27 28 29 30 29 29 29 31 29 28 28
10 11 13 14 15 14 14 15 14 15 16 17 17 18 19 19 20 23 25 23 23 24 27 29 31 32 33 34 32 32 34 32 32
11 11 12 13 13 14 15 14 16 18 18 19 21 21 22 22 23 27 31 29 27 28 28 29 31 33 34 36 37 35 35 37 36
11 12 13 13 15 16 16 17 17 19 20 22 23 25 25 25 26 29 35 37 35 33 33 33 33 34 36 37 38 39 39 39 40
12 14 15 16 16 18 20 20 22 23 22 24 24 26 26 27 28 28 32 37 38 37 37 38 38 39 38 38 40 41 41 41 42
13 15 16 14 16 20 20 20 20 20 20 22 22 23 25 26 26 26 27 29 33 32 31 32 36 39 42 43 42 43 44 44 46
12 14 14 17 18 18 17 17 19 19 19 21 22 23 25 26 26 26 26 27 29 32 34 32 30 32 35 39 42 45 46 46 46
10 11 13 15 15 15 17 16 18 22 21 21 23 24 26 25 24 26 26 26 27 29 30 32 32 32 32 34 38 42 46 48 49
9 11 12 14 16 17 19 19 18 18 20 23 24 24 25 25 23 23 24 24 26 28 30 34 33 33 30 31 33 36 38 41 49
11 13 15 16 18 20 21 21 22 20 20 24 27 26 19 19 25 21 22 33 32 29 31 32 31 32 34 35 36 34 33 35 39
13 14 17 20 22 23 25 24 25 21 22 23 28 21 29 20 27 36 25 28 31 27 26 27 30 32 32 34 36 36 35 36 36
17 20 22 23 23 23 23 22 22 20 21 19 19 24 23 37 31 30 25 23 29 32 31 29 33 36 36 38 42 45 42 39 41
20 22 23 23 22 23 24 23 22 20 19 19 17 21 26 31 38 20 30 27 28 33 35 36 37 39 37 34 35 42 44 42 41
24 25 25 24 23 22 22 23 23 22 20 20 21 22 23 26 31 44 32 36 32 35 38 37 35 37 39 36 34 35 35 36 37

GFSFLT1_850_spd_009.txt.gz
Wind_Speed
4 9 10 9 12 11 8 5 5 7 7 9 11 13 12 13 12 9 11 12 10 15 17 15 12 16 18 18 19 16 14 13 13
6 8 10 7 10 11 12 8 7 9 10 11 11 12 14 14 13 10 13 14 13 15 17 14 17 16 17 17 17 17 16 16 14
6 9 9 9 9 12 12 11 6 7 10 13 15 14 14 16 16 13 11 17 20 20 19 19 19 16 19 19 19 18 18 17 16
6 9 8 9 9 11 13 12 12 10 10 12 13 14 15 16 16 14 15 18 23 18 20 22 19 21 19 23 22 21 21 20 20
6 8 9 9 11 11 12 11 11 10 11 12 12 13 15 15 13 14 16 19 20 21 22 24 24 23 24 23 25 25 25 24 23
7 8 7 9 10 10 11 11 12 13 13 12 15 18 17 11 13 16 18 21 20 21 21 23 25 27 27 27 27 28 29 28 27
7 7 6 8 8 10 10 12 13 14 14 12 17 18 14 15 18 20 21 22 21 22 23 24 26 28 30 31 31 31 31 31 30
5 6 8 10 11 13 12 14 15 12 14 15 14 16 19 19 21 23 25 29 28 26 27 28 28 29 31 32 33 34 35 35 34
5 6 7 8 8 10 11 12 13 16 17 18 19 20 22 23 25 27 27 32 35 35 32 33 34 34 33 34 35 36 37 38 38
6 8 8 9 10 12 13 13 15 16 17 18 19 21 22 24 26 29 31 31 36 38 37 33 34 37 38 38 38 38 38 40 40
8 8 9 10 11 13 15 16 17 17 18 19 19 21 22 24 25 28 31 32 33 34 36 32 29 32 36 38 40 41 42 42 42
7 8 8 10 11 12 13 14 14 15 16 17 18 19 20 22 24 26 29 30 30 32 33 35 33 32 31 33 37 40 42 43 45
6 6 7 10 9 10 10 13 15 16 17 19 20 21 23 24 26 26 24 28 29 30 30 32 33 32 33 33 34 38 40 43 45
5 6 8 9 10 11 15 15 15 18 19 19 21 25 23 27 27 26 24 24 24 27 29 32 36 37 36 34 34 33 34 38 43
9 10 12 13 14 15 17 18 19 21 18 21 24 22 28 19 20 22 23 25 28 28 33 34 32 34 30 36 37 35 35 36 37
11 12 14 16 17 17 19 19 21 22 19 22 26 27 15 20 20 19 28 32 32 31 30 28 26 29 31 33 36 38 38 40 38
13 15 17 19 19 18 20 20 22 20 21 21 24 19 23 17 31 31 25 27 22 24 29 35 37 37 37 38 34 33 37 40 42
16 19 19 19 18 18 19 19 19 20 20 19 16 16 18 34 27 31 17 22 31 26 31 36 35 38 41 41 37 36 35 36 35
20 21 20 19 18 18 18 18 20 20 18 20 16 19 25 30 32 15 34 27 30 37 34 37 38 36 33 34 35 36 34 38 37
23 23 21 19 18 18 20 21 22 22 19 19 21 22 24 26 31 41 33 34 30 31 35 31 38 35 31 33 35 35 37 38 35

GFSFLT1_850_spd_012.txt.gz
Wind_Speed
1 3 9 11 7 9 10 6 4 4 5 6 8 13 14 17 13 9 8 12 12 13 18 17 15 15 18 18 18 18 17 14 13
5 4 5 13 11 10 12 11 9 9 9 10 11 12 12 13 13 13 11 12 15 14 15 17 17 17 17 19 19 18 17 16 15
3 4 8 11 9 10 10 11 9 8 9 10 11 11 11 13 13 13 10 11 14 18 19 19 20 20 21 19 20 20 20 19 18
6 7 8 6 7 8 8 9 9 9 9 10 11 12 13 14 15 13 12 11 14 18 18 18 20 21 23 24 21 23 23 22 21
4 5 6 6 8 9 9 9 10 11 11 12 12 12 16 17 15 12 12 13 14 17 19 19 21 22 24 25 25 25 25 25 25
6 6 8 8 8 9 10 10 11 13 13 11 11 17 19 17 16 18 18 20 21 21 22 23 22 23 25 26 27 28 28 28 28
8 9 7 7 8 10 11 13 15 16 17 19 19 19 20 19 21 24 24 23 25 27 27 27 28 27 27 28 29 29 31 31 31
5 8 12 13 14 15 17 18 18 19 21 21 21 22 23 23 25 26 26 28 28 30 33 33 32 32 32 31 31 32 32 33 34
6 7 9 11 14 14 15 14 16 18 18 20 21 21 23 23 26 26 27 27 28 31 33 35 36 34 31 33 34 34 35 35 35
6 6 7 9 10 12 14 17 16 18 18 19 20 21 20 22 22 24 25 25 28 30 31 32 32 32 29 31 34 37 37 36 37
6 6 7 9 12 14 14 14 15 14 14 15 16 17 20 22 24 26 26 27 27 28 28 29 30 30 31 30 31 33 37 40 40
2 5 8 10 10 8 9 9 9 11 14 16 17 20 22 24 26 29 28 27 26 26 30 27 27 26 30 31 34 34 33 34 39
3 4 4 3 4 6 10 12 15 18 20 19 20 22 26 26 25 26 24 25 24 21 18 20 25 29 33 35 32 32 33 34 35
2 3 5 6 9 12 15 17 20 23 23 24 25 24 25 20 16 22 20 18 24 27 28 30 30 26 24 26 28 30 33 36 36
6 7 9 11 13 16 19 21 20 20 20 23 23 26 13 14 20 24 24 26 29 31 33 34 30 32 30 31 32 29 27 32 34
9 11 13 15 17 18 18 19 20 19 21 25 31 24 23 17 13 29 27 27 20 18 23 28 33 36 39 42 42 43 43 42 38
12 15 18 19 18 17 17 18 20 20 21 23 24 18 29 14 36 19 27 16 19 31 31 30 36 35 36 39 37 36 35 32 33
16 19 21 19 17 17 16 18 20 23 22 21 16 13 11 40 16 36 11 25 32 36 40 34 32 35 28 37 39 33 35 31 28
21 23 23 20 18 17 17 18 20 21 22 23 21 22 23 28 27 11 43 25 38 38 32 36 27 33 41 36 32 26 33 31 30
22 24 24 22 19 18 18 20 21 22 22 22 26 29 27 32 31 40 31 35 33 33 33 30 39 38 33 38 34 37 42 42 39

GFSFLT1_850_spd_015.txt.gz
Wind_Speed
2 2 7 10 11 9 10 7 5 5 5 5 5 6 8 11 11 10 9 10 8 13 15 18 13 14 15 19 18 17 17 16 15
5 4 8 11 9 8 9 8 8 7 7 7 7 8 9 10 11 12 11 10 12 10 14 15 17 14 15 18 21 22 20 17 17
2 4 7 8 7 8 9 9 9 8 9 9 10 11 11 12 13 13 12 10 10 11 14 16 17 17 17 19 19 20 21 21 20
3 4 5 5 7 8 9 9 9 10 10 11 12 11 11 14 15 13 11 9 9 12 15 18 17 18 19 19 20 21 21 23 23
0 1 3 5 8 9 10 10 11 11 12 12 11 12 13 16 15 14 14 15 15 17 15 19 20 20 20 21 22 23 24 23 25
2 4 6 9 9 9 11 10 12 13 14 15 16 17 18 19 19 20 21 21 21 21 22 23 24 26 26 25 25 24 25 26 28
5 7 6 7 10 10 12 14 14 15 16 16 17 18 20 22 22 22 22 21 22 24 25 27 27 27 27 28 27 27 27 27 28
4 4 7 10 12 14 14 13 14 15 15 17 17 16 17 18 19 22 22 22 23 24 26 27 29 30 29 26 26 29 30 30 30
3 4 6 8 9 10 13 14 15 16 15 13 14 14 15 15 17 19 18 18 20 21 24 26 27 28 28 28 26 26 30 33 34
5 6 4 7 9 12 13 14 13 11 13 12 13 14 14 16 18 21 22 22 22 22 24 24 22 25 26 27 26 27 29 30 33
6 3 6 9 10 12 13 12 13 12 11 12 14 15 16 17 18 21 20 21 18 18 20 20 20 21 23 24 24 27 30 30 30
5 5 7 9 10 11 7 8 11 12 13 15 17 17 18 20 20 19 20 18 16 16 16 18 17 20 23 24 25 27 32 32 32
5 4 7 5 5 7 10 13 15 17 20 20 19 19 17 15 14 11 13 14 17 20 23 24 25 26 28 27 25 25 25 24 28
4 2 2 5 9 12 14 16 18 19 19 20 19 18 13 9 13 15 17 20 23 24 25 24 25 25 26 28 29 30 32 34 35
2 4 7 10 13 15 17 17 16 18 19 20 21 19 12 19 13 12 24 20 20 18 15 20 26 30 32 33 35 37 38 37 34
5 9 12 15 17 17 17 17 17 17 22 26 28 24 19 9 16 26 23 22 13 17 23 31 32 31 29 30 33 32 33 36 33
9 13 16 18 17 16 16 16 18 19 21 24 24 16 24 10 34 14 26 13 18 29 32 32 30 33 29 27 31 37 31 26 28
12 16 19 19 18 16 15 16 19 21 21 21 15 10 9 41 14 35 10 30 24 36 35 34 33 27 29 35 36 33 30 30 29
14 18 20 20 19 16 16 16 18 20 23 23 22 18 23 24 23 18 44 25 41 39 38 37 30 32 33 38 29 31 28 31 32
15 19 21 21 18 17 17 17 18 20 21 22 26 28 31 29 29 34 27 39 38 42 37 40 39 33 37 30 41 34 36 35 38

GFSFLT1_850_spd_018.txt.gz
Wind_Speed
3 6 8 10 7 7 8 5 3 3 4 4 5 5 6 8 10 9 9 10 9 11 9 15 15 11 12 14 17 17 16 17 17
4 4 6 6 6 7 8 8 7 7 8 8 7 8 8 9 11 11 11 9 10 9 9 12 14 15 12 13 15 17 19 20 18
4 5 4 4 5 6 8 8 9 9 9 10 10 10 10 11 12 12 10 9 8 9 9 11 14 14 14 16 16 19 18 19 20
3 2 2 3 6 8 9 9 9 9 10 11 11 11 13 13 13 12 12 12 11 11 12 10 14 15 15 16 17 17 21 19 21
2 1 1 5 7 7 8 7 9 9 9 10 10 11 12 14 15 14 14 14 14 15 14 13 16 18 19 20 21 22 21 21 22
3 2 3 4 6 6 7 7 7 7 8 10 11 12 13 15 15 15 15 17 17 18 17 19 19 19 19 20 21 23 22 23 23
1 3 3 5 5 6 7 9 9 11 12 12 12 12 13 14 14 14 15 15 15 17 19 21 23 25 24 23 23 22 22 24 26
2 2 3 5 6 6 7 10 11 12 12 13 11 11 12 13 13 14 12 13 13 15 18 19 22 22 23 23 25 25 23 24 26
2 3 4 5 7 7 9 10 13 14 13 12 12 13 15 15 15 15 16 18 20 22 24 26 26 21 19 19 22 25 25 24 23
5 6 7 7 8 11 13 14 15 15 15 15 15 16 17 17 17 17 18 19 21 20 18 18 16 19 19 17 18 19 19 22 24
11 9 8 9 11 11 14 16 14 12 13 15 16 18 19 20 21 22 22 21 20 19 16 16 15 16 20 18 18 21 21 20 24
9 9 9 10 12 14 11 11 13 15 17 18 19 19 19 19 19 18 16 13 12 14 16 17 17 16 19 22 22 24 26 27 26
7 8 10 10 8 9 12 15 17 19 19 19 16 14 13 11 8 9 11 14 17 19 20 19 18 19 20 21 23 26 29 30 32
8 8 5 7 10 13 15 17 17 18 16 15 14 13 10 9 13 12 11 17 19 19 17 16 17 21 26 28 29 30 30 32 34
4 3 6 10 13 15 15 14 14 15 17 17 17 13 6 14 10 13 17 15 17 11 16 21 25 27 27 26 27 28 30 30 30
1 5 9 12 15 16 16 14 13 15 19 22 23 17 9 9 7 29 12 24 11 20 25 26 29 28 28 27 26 28 30 27 28
3 7 12 15 16 16 15 15 15 16 19 22 19 13 19 6 34 16 31 14 29 25 25 30 31 30 29 30 32 33 33 29 27
5 10 14 17 17 15 14 15 16 18 18 18 15 9 8 36 17 37 20 33 27 35 33 33 33 32 34 31 32 32 29 30 31
7 12 16 19 17 15 14 15 16 18 20 19 18 16 18 15 21 25 42 33 42 40 38 36 35 37 32 32 32 31 32 33 28
9 13 17 18 16 15 14 14 16 18 19 21 23 24 25 25 23 31 30 45 44 42 38 38 39 36 34 31 35 36 31 26 31

GFSFLT1_850_spd_021.txt.gz
Wind_Speed
2 4 6 7 7 7 8 7 5 4 4 3 2 4 5 7 8 8 8 8 8 11 10 9 14 11 11 11 12 15 15 15 16
2 4 4 4 5 7 8 8 8 7 7 8 8 7 8 9 11 11 10 9 8 7 10 9 11 13 13 12 12 14 14 16 19
6 5 3 2 4 6 7 7 7 7 7 7 7 7 8 9 10 10 10 10 10 9 9 8 10 12 13 11 12 13 16 17 17
5 4 1 2 4 6 7 7 6 6 6 7 7 7 7 8 9 9 9 10 11 11 12 10 8 10 13 14 14 15 15 14 17
4 2 2 3 5 6 7 6 5 5 6 7 8 9 9 10 11 9 7 9 10 10 12 13 11 12 15 16 17 18 19 19 18
5 3 3 4 5 5 6 6 6 7 8 8 9 10 10 11 11 12 10 12 12 13 13 16 17 18 20 20 19 19 20 19 20
3 3 2 2 2 3 3 5 8 9 11 11 12 12 13 12 12 13 13 11 12 13 15 16 17 19 19 20 21 22 22 21 21
2 2 0 2 4 5 6 7 9 12 15 15 13 13 13 15 16 16 16 15 16 16 18 20 22 21 22 19 18 20 23 24 26
1 2 3 4 7 7 9 12 14 14 17 16 16 16 16 17 17 17 18 18 18 19 21 21 21 17 14 15 14 15 18 18 17
4 2 4 6 8 11 13 14 16 18 18 17 15 16 18 19 19 20 20 21 21 20 20 19 14 16 14 12 13 18 16 17 17
5 5 6 8 10 12 15 18 18 15 16 17 18 20 21 22 21 21 20 20 18 17 17 15 15 16 16 18 17 21 22 23 24
8 7 9 10 11 15 15 15 17 19 20 21 20 20 19 18 17 16 14 14 14 15 17 17 18 18 18 19 21 23 26 28 29
8 9 9 11 10 11 15 18 20 21 22 21 18 17 16 14 12 12 15 17 18 19 20 20 19 19 21 23 25 28 29 32 33
8 9 6 7 10 14 17 18 20 20 18 17 15 16 15 14 14 14 11 18 17 19 18 16 18 21 24 26 27 28 29 30 32
7 4 5 8 11 14 15 16 17 18 19 19 18 14 14 11 16 15 17 18 22 16 15 24 26 26 27 28 28 29 30 30 31
4 4 6 10 14 17 17 15 15 16 20 22 22 14 10 18 13 10 24 20 20 16 29 23 29 30 29 30 30 31 32 31 26
3 4 8 12 16 16 15 14 14 15 19 21 19 12 16 4 21 24 22 22 23 31 28 32 32 32 32 32 33 34 33 30 26
3 5 9 13 16 15 15 14 15 15 15 17 13 9 7 35 16 33 24 33 32 36 35 35 34 32 34 35 35 34 33 30 31
4 7 10 14 15 15 14 14 15 16 17 17 16 15 18 15 20 24 43 36 43 43 42 39 36 38 37 34 32 33 31 32 30
6 8 11 14 16 15 14 14 15 16 17 19 22 24 24 22 20 35 40 48 47 48 42 44 41 36 34 33 35 32 31 29 28

GFSFLT1_850_spd_024.txt.gz
Wind_Speed
4 4 5 8 8 9 10 9 8 7 6 5 3 5 6 7 7 7 7 7 6 6 7 8 10 13 8 11 9 12 14 14 14
1 2 3 5 6 7 8 7 7 6 5 4 5 4 4 5 6 6 7 7 7 6 4 6 7 9 10 10 11 12 12 14 16
5 3 1 3 5 6 6 6 6 6 6 6 6 6 5 5 6 6 5 5 5 5 6 7 5 10 9 10 10 10 11 15 17
4 4 1 3 4 5 6 6 6 7 7 7 7 6 6 6 6 5 5 5 6 6 6 7 8 8 8 10 11 12 13 14 15
6 3 3 3 5 5 5 6 6 5 5 6 9 10 11 10 11 11 10 9 9 10 10 12 13 13 12 13 15 16 16 16 17
5 4 4 4 4 2 3 3 4 7 8 8 10 10 10 11 11 12 12 12 11 12 12 14 14 15 17 18 19 21 21 20 18
5 4 4 2 1 1 3 5 6 7 10 13 13 13 13 13 13 13 14 14 13 13 14 15 16 16 17 17 16 17 19 21 22
4 4 3 2 2 5 6 6 9 10 13 14 15 14 15 16 15 15 15 15 15 16 16 17 18 18 18 16 17 18 16 16 16
3 4 3 2 3 4 6 10 10 12 15 17 17 17 16 17 18 19 19 18 18 17 19 17 16 17 15 15 16 17 19 19 19
4 2 3 3 5 8 9 11 13 16 16 15 16 18 19 20 20 21 21 19 19 18 17 17 18 19 18 16 16 17 19 20 20
4 5 6 5 8 10 13 15 14 14 15 17 19 21 21 21 19 18 17 15 14 14 15 15 16 16 15 17 19 20 22 24 25
6 6 8 10 10 13 12 14 15 17 18 19 19 19 18 18 16 15 13 13 14 16 17 18 19 19 19 21 23 24 26 28 30
8 9 11 10 10 10 13 16 19 19 19 17 16 16 16 16 15 14 13 14 15 17 19 20 20 19 20 22 23 26 27 30 32
10 10 9 7 8 11 14 17 18 18 16 15 13 15 16 15 15 15 15 16 19 19 21 20 20 24 26 28 29 30 31 33 34
10 9 6 6 9 13 15 16 17 19 19 18 16 15 12 13 12 14 20 14 23 23 21 20 26 28 30 30 31 32 33 34 35
7 6 5 7 10 14 16 17 17 18 20 21 19 12 7 10 12 7 20 24 22 21 26 27 28 30 31 31 32 33 34 34 33
8 5 5 8 12 15 17 18 17 18 20 21 19 11 11 2 8 23 23 19 21 29 25 31 32 31 30 31 34 36 35 34 28
8 5 5 9 13 16 18 18 17 16 17 18 13 8 7 34 9 29 18 29 30 33 35 36 33 34 34 33 34 35 34 32 27
7 5 7 11 14 16 17 17 17 17 17 16 16 15 17 14 19 21 40 32 41 41 41 39 39 34 33 33 33 34 35 30 29
7 5 8 11 14 15 16 16 17 17 18 19 21 21 21 21 20 34 39 46 46 45 45 42 35 35 34 33 33 33 28 29 31

GFSFLT1_850_spd_027.txt.gz
Wind_Speed
6 6 7 7 8 9 9 8 6 5 4 3 2 2 3 4 4 4 4 4 3 3 4 7 8 12 13 8 10 10 13 12 12
0 3 5 6 7 7 7 6 5 5 4 4 4 3 3 3 3 3 3 3 4 4 2 3 6 7 9 10 10 10 9 14 16
6 1 2 4 4 5 5 6 7 7 8 7 6 4 4 3 3 3 3 3 4 4 4 5 5 6 10 8 9 9 9 10 12
6 3 1 2 3 4 5 6 6 6 6 5 5 6 7 8 7 7 8 9 8 8 9 9 10 9 9 10 11 11 11 12 12
8 5 4 4 4 5 4 4 4 3 5 7 8 8 10 10 9 9 10 9 9 10 12 11 12 11 14 16 16 16 16 16 16
8 8 6 5 4 2 1 2 3 6 7 9 11 11 11 11 11 11 11 11 11 11 12 13 14 15 17 16 14 15 19 20 20
8 7 5 3 2 0 2 4 6 7 9 11 12 12 11 12 12 12 12 12 12 13 14 15 14 15 15 17 17 17 16 16 18
7 6 4 3 1 3 4 5 8 9 11 13 14 14 14 14 14 14 14 14 14 14 15 14 15 16 16 18 18 17 17 18 17
6 5 4 3 1 3 5 7 10 12 14 15 14 13 14 16 17 18 17 17 17 16 14 15 18 17 17 17 17 18 19 19 22
5 4 3 4 3 5 8 11 13 14 13 13 15 16 17 18 18 17 16 15 14 14 14 16 16 15 15 15 18 19 20 21 23
5 4 5 4 6 8 11 13 12 13 15 16 17 17 17 17 16 14 13 11 11 11 12 15 16 16 16 18 20 21 23 24 26
6 5 6 8 8 11 11 12 15 16 16 17 17 16 16 15 14 12 11 10 10 12 13 15 16 17 17 19 20 21 24 26 29
7 5 8 9 9 8 11 14 16 17 17 16 16 15 15 15 14 12 10 10 12 14 16 18 18 18 19 21 22 24 26 28 30
7 6 9 8 6 9 12 14 16 15 14 12 13 14 14 13 12 12 11 13 16 16 19 20 20 22 25 27 28 29 31 31 32
8 9 7 5 6 9 11 13 14 15 16 14 14 12 8 8 10 11 10 15 20 21 21 23 27 25 28 30 30 30 32 33 33
8 9 7 5 5 7 10 12 15 16 18 18 16 9 5 13 8 11 14 19 24 20 22 28 29 29 28 28 30 31 32 33 33
11 10 7 5 6 8 10 13 15 17 19 19 15 8 7 4 16 19 21 22 18 25 22 27 28 28 30 29 30 31 32 33 33
12 9 7 5 6 9 12 14 14 16 18 17 12 7 4 25 5 23 13 24 26 31 30 29 31 29 29 30 31 31 32 33 32
13 10 7 6 7 10 12 15 16 16 15 16 16 14 14 9 14 16 29 26 36 34 34 36 30 31 29 30 29 31 33 32 29
13 10 7 6 8 10 13 15 16 16 17 17 18 18 18 18 17 25 29 38 36 37 41 34 35 32 31 32 34 36 30 29 29

GFSFLT1_850_spd_030.txt.gz
Wind_Speed
6 6 7 7 8 8 8 7 5 3 2 1 1 1 2 4 5 5 5 5 5 5 4 6 7 6 11 14 10 9 11 12 11
2 5 5 5 5 6 6 6 5 5 4 4 4 4 4 4 5 6 7 7 7 7 5 4 5 8 10 11 11 10 10 12 16
5 1 2 3 3 4 5 6 6 6 5 5 4 4 5 6 6 7 7 9 9 10 9 7 7 8 8 10 10 10 10 10 11
8 4 2 2 3 4 5 5 4 3 3 4 6 7 8 7 8 10 8 11 9 10 11 11 11 12 13 12 12 13 13 12 13
9 7 6 3 4 4 3 2 2 3 5 7 7 8 8 5 8 7 10 9 8 11 14 12 13 13 13 11 12 17 19 19 19
9 9 6 4 4 3 1 2 4 6 8 8 9 9 8 6 7 6 10 10 10 11 13 13 12 13 14 15 14 15 15 16 18
10 8 7 5 3 2 1 2 5 7 9 11 11 11 11 10 11 11 11 10 11 12 14 14 15 15 16 17 16 16 16 17 16
9 7 6 4 4 3 3 4 7 10 11 12 14 13 12 11 12 15 13 13 13 14 14 16 16 16 16 17 18 18 19 18 19
7 6 6 6 4 3 5 8 10 11 14 14 13 14 14 15 15 18 16 14 13 13 15 16 16 15 15 16 18 18 20 20 21
8 7 5 5 6 6 8 11 12 13 13 15 16 17 17 17 16 16 15 13 13 13 13 14 14 14 14 16 17 18 19 20 22
8 7 5 7 6 7 11 13 12 12 14 17 18 17 17 16 15 13 13 11 11 11 13 14 16 16 17 18 19 20 21 23 24
9 8 5 6 9 10 12 10 12 14 16 17 17 17 16 14 13 11 10 10 10 11 12 14 15 16 16 18 19 20 22 24 26
12 10 8 7 10 11 9 10 13 14 14 14 15 15 15 14 13 12 11 11 12 14 15 17 17 18 20 22 23 24 25 27 29
15 12 9 9 8 7 8 10 11 12 12 12 13 15 14 11 10 10 11 12 14 16 20 21 22 22 24 26 26 26 27 28 30
18 15 9 8 7 5 7 9 11 12 13 12 12 11 10 9 8 10 11 14 15 19 22 20 24 27 27 27 27 27 27 29 29
17 16 10 9 6 5 6 9 11 13 14 13 12 8 7 12 8 5 15 18 20 21 21 24 26 28 27 27 26 26 27 29 30
17 16 12 9 6 5 6 8 11 13 14 12 8 5 5 4 6 21 8 15 16 20 22 26 24 26 26 25 27 27 28 30 31
19 16 13 10 7 6 6 8 10 12 14 12 6 5 4 13 10 9 16 12 19 21 25 25 26 27 25 27 29 30 31 32 32
19 17 13 10 7 6 7 9 10 11 11 13 12 9 10 6 10 8 12 14 18 22 23 24 28 22 24 28 29 29 33 36 33
21 17 14 10 7 7 8 9 11 12 12 12 13 12 11 10 10 19 15 21 20 20 16 24 20 21 24 24 23 30 32 30 29

GFSFLT1_850_spd_033.txt.gz
Wind_Speed
7 7 7 8 8 8 7 5 3 2 1 2 2 4 5 7 5 5 8 8 10 10 9 6 5 6 5 7 13 10 10 9 10
6 6 5 6 6 6 6 6 5 4 5 5 5 6 6 10 5 6 7 8 10 10 9 7 7 8 8 8 9 10 9 9 10
4 2 3 3 4 5 6 6 6 5 5 5 5 6 7 6 7 6 7 11 10 10 9 9 10 11 11 9 9 10 10 10 9
7 4 1 1 3 4 4 4 4 3 4 5 6 7 8 7 5 4 6 9 7 9 8 9 10 10 10 9 11 13 13 14 13
10 6 4 2 3 3 2 2 3 4 6 8 7 7 7 6 5 4 9 8 8 10 11 11 11 12 12 13 13 14 13 14 16
6 7 4 4 2 1 1 2 4 6 7 7 7 7 4 3 4 7 9 10 10 11 12 12 12 13 14 14 13 13 14 14 15
10 9 6 4 3 2 2 3 5 6 5 9 8 5 6 4 5 11 10 10 10 13 13 14 14 14 14 15 15 15 15 15 15
10 6 5 2 3 2 3 3 4 9 8 11 9 11 9 6 7 14 12 12 13 12 15 15 15 14 14 15 16 17 17 16 17
9 7 6 7 5 5 4 5 9 11 12 11 11 13 13 10 11 16 14 13 13 12 16 15 15 14 14 15 16 16 16 17 18
10 10 9 7 5 5 6 8 10 12 11 14 14 13 11 11 11 14 14 13 13 13 15 14 14 14 14 16 17 18 18 19 20
12 12 6 4 6 7 9 11 11 11 13 14 14 14 11 12 11 9 15 13 12 14 14 14 14 14 15 16 18 19 20 21 22
12 10 8 6 7 9 11 11 10 11 12 11 14 12 11 12 10 10 9 12 11 12 13 15 16 17 17 17 19 20 22 23 25
14 12 10 9 9 10 10 8 9 10 11 12 10 13 13 10 10 11 9 11 11 14 14 16 19 20 20 21 23 24 24 24 25
17 15 14 11 9 8 7 6 7 9 11 12 11 13 14 9 10 8 11 12 13 14 17 18 19 19 20 22 23 24 24 24 25
19 18 15 13 10 8 6 6 7 9 11 11 10 13 10 9 8 8 10 11 15 17 19 20 19 23 25 24 24 24 24 25 26
23 19 16 13 11 8 6 5 7 10 11 11 10 10 12 10 9 9 7 14 15 17 16 17 23 24 24 24 25 23 25 25 26
23 20 18 15 12 9 6 6 8 10 11 10 9 3 6 7 7 8 17 12 15 13 20 22 23 22 24 24 23 26 26 27 28
25 22 18 16 12 9 6 6 7 9 11 10 4 4 3 14 9 12 11 15 15 21 25 25 24 23 27 22 25 27 29 29 29
26 22 18 16 13 9 7 7 8 8 9 11 9 6 9 4 9 5 12 16 20 21 24 26 25 28 23 24 28 27 29 31 32
25 23 20 16 14 9 7 8 8 8 9 10 10 9 9 9 11 20 13 19 20 22 22 21 27 25 22 26 24 19 24 26 29

GFSFLT1_850_spd_036.txt.gz
Wind_Speed
8 9 10 11 11 10 8 6 5 3 4 5 6 7 8 8 8 8 10 9 10 9 9 8 7 6 3 3 9 10 6 8 7
8 8 9 9 9 9 9 8 7 7 7 7 8 8 9 11 7 2 6 7 11 9 7 7 8 9 9 6 6 7 6 6 7
7 7 6 6 7 7 8 8 8 7 6 6 6 7 7 6 4 6 7 7 9 8 6 6 6 7 8 8 8 7 8 9 9
5 4 3 4 5 6 6 6 5 5 5 6 6 6 8 6 4 3 6 7 7 8 7 7 7 7 7 8 8 6 8 9 12
8 5 2 3 4 5 4 4 4 4 6 7 6 6 6 6 5 5 8 7 7 9 8 7 6 8 9 9 8 8 9 9 9
9 6 4 3 3 3 2 2 4 6 7 7 6 3 1 2 7 8 9 8 8 10 10 10 10 11 11 11 11 11 10 10 10
7 6 4 3 3 1 1 1 2 3 4 6 7 6 5 2 10 9 8 10 10 10 13 12 12 12 12 14 14 14 13 14 14
11 7 6 4 3 2 1 1 3 4 5 7 9 8 7 5 12 13 12 12 10 11 15 14 14 13 13 14 14 15 15 15 15
13 7 5 4 5 2 2 4 4 6 8 7 8 10 9 8 13 14 13 12 11 12 14 13 12 12 13 14 13 15 15 16 17
10 8 11 12 10 5 6 5 7 8 8 11 11 11 9 10 13 14 14 11 11 12 13 12 12 12 13 14 14 15 16 17 18
14 18 19 9 7 6 9 7 7 8 9 9 10 10 9 10 11 13 14 12 11 12 12 12 12 13 14 16 16 17 18 19 20
19 20 13 9 7 10 10 9 7 8 8 8 10 10 10 10 11 11 13 12 10 11 11 13 14 15 17 18 18 19 21 22 22
20 16 14 12 11 11 9 8 6 6 7 8 9 11 12 12 11 12 12 13 12 12 12 13 14 17 18 17 19 21 22 22 22
19 17 17 15 13 10 9 7 5 6 7 9 10 12 13 10 10 11 11 10 11 14 16 15 18 19 20 20 21 21 22 22 22
22 21 19 17 14 10 9 7 5 5 7 9 10 12 10 10 10 10 12 13 13 17 15 19 18 19 22 24 22 24 24 22 23
27 25 21 18 15 13 10 7 5 4 8 9 10 7 9 10 10 7 9 10 18 19 20 18 22 24 25 23 23 25 24 25 24
28 26 22 20 16 14 11 7 6 5 7 8 8 4 7 9 10 15 14 16 15 18 20 23 26 26 25 23 28 24 26 26 27
30 28 24 21 17 15 11 7 6 6 6 8 5 3 3 12 10 8 14 14 18 20 21 27 27 29 27 29 26 26 27 28 27
32 30 26 21 18 15 11 8 6 7 8 8 7 7 8 6 9 7 12 18 17 20 27 27 30 29 30 27 26 28 29 29 26
33 29 26 23 20 16 12 10 6 7 9 9 10 10 10 9 10 22 20 22 23 25 25 26 28 29 26 28 29 29 28 26 28

GFSFLT1_850_spd_039.txt.gz
Wind_Speed
11 12 13 12 11 10 9 7 6 5 7 9 10 9 8 9 6 6 7 9 9 9 6 7 7 7 5 2 5 7 7 3 4
11 12 12 12 12 11 11 10 9 9 10 10 9 9 10 8 4 2 4 5 8 6 5 4 4 5 5 3 3 4 4 3 4
11 11 10 10 10 11 11 11 10 8 7 6 6 6 6 5 3 1 2 4 5 2 4 3 4 3 4 5 4 3 5 5 7
10 10 8 8 9 10 9 8 6 5 5 4 5 8 8 4 1 3 5 7 7 4 3 3 2 4 4 3 3 5 6 5 5
10 8 7 7 8 8 7 6 5 4 4 6 5 7 5 2 3 5 6 6 7 5 3 3 5 6 6 6 7 7 7 7 7
11 7 7 8 7 6 5 4 4 4 5 5 3 2 3 5 7 7 7 7 7 7 7 7 8 8 9 9 9 9 9 10 10
10 8 7 7 7 6 4 3 2 2 1 2 3 2 5 7 7 8 8 8 8 8 9 9 9 9 10 11 11 10 10 11 12
9 7 7 7 7 5 5 4 2 1 2 5 5 4 6 9 11 10 10 10 8 12 11 10 9 9 10 10 11 10 10 11 11
10 8 8 9 7 6 6 4 3 3 3 4 6 7 9 9 11 11 10 9 9 12 11 9 9 8 10 10 11 11 12 12 12
14 12 12 10 6 6 7 6 4 4 5 6 7 7 9 10 11 12 10 9 9 10 9 9 8 8 9 11 12 13 14 13 14
16 18 14 10 8 11 9 6 6 6 6 7 7 7 7 9 10 11 10 9 8 8 9 9 9 10 12 13 15 15 16 17 17
19 16 17 16 14 12 10 9 8 7 6 6 7 7 7 8 11 11 11 9 9 9 9 10 11 11 12 14 15 15 17 18 19
20 21 22 18 16 13 11 10 9 7 5 6 6 7 7 9 10 10 11 9 8 9 10 12 13 14 15 15 16 17 18 18 19
23 22 21 20 19 14 11 10 9 6 5 5 6 6 7 7 7 9 10 10 10 9 15 13 14 16 15 19 19 19 19 20 20
26 24 23 23 21 16 13 12 9 6 4 5 6 6 4 6 5 7 7 9 8 14 16 16 16 17 20 23 20 20 21 24 21
27 27 27 26 21 17 14 13 10 7 5 4 6 4 4 4 4 5 10 11 13 15 17 19 19 21 23 22 21 22 24 21 21
28 30 30 27 24 21 17 15 13 9 5 4 5 3 5 4 7 9 7 10 14 14 18 19 22 26 25 25 25 24 23 23 22
34 33 31 29 25 21 17 16 13 9 7 4 2 2 3 9 5 7 9 12 13 15 18 20 25 27 27 27 26 25 23 24 20
39 35 34 30 27 22 19 17 15 10 8 5 5 5 7 4 5 8 9 13 17 18 19 24 24 24 25 25 25 25 25 24 21
40 35 34 31 27 23 21 19 15 11 8 7 6 7 8 9 10 15 14 18 20 21 22 22 23 20 19 22 24 24 27 23 25

GFSFLT1_850_spd_042.txt.gz
Wind_Speed
10 10 11 12 13 12 11 9 5 4 7 9 10 9 8 8 6 6 8 9 8 6 5 5 5 4 2 2 3 4 4 1 2
11 11 12 12 12 11 10 10 9 10 11 11 9 9 8 6 4 5 3 4 6 4 4 3 4 3 5 1 1 3 3 2 2
12 11 11 11 11 12 11 11 10 9 8 8 7 7 6 4 4 2 1 5 5 4 3 2 3 3 2 3 5 4 2 3 5
11 11 10 10 11 11 11 9 7 6 5 5 6 7 7 5 3 2 4 6 6 4 1 2 3 1 2 3 4 4 5 3 3
10 9 9 9 9 9 8 6 5 4 4 6 6 4 3 2 2 2 5 7 6 1 4 4 6 5 4 5 6 6 6 5 4
11 9 9 9 9 8 7 5 4 4 4 5 4 3 3 4 5 6 7 8 7 7 7 6 6 7 7 7 7 8 8 8 8
13 9 9 9 9 8 7 6 4 4 3 2 3 4 5 6 6 7 7 8 7 8 7 7 7 8 8 8 8 7 8 8 8
15 13 11 10 10 9 7 6 5 4 4 4 4 5 6 8 8 8 8 8 7 6 8 7 6 6 7 8 8 8 8 9 9
15 14 12 12 10 10 9 8 6 5 5 5 6 7 8 8 8 8 8 6 9 11 8 6 6 6 7 8 8 9 9 10 10
16 14 13 13 12 11 9 8 7 7 6 7 8 8 8 8 8 8 7 7 8 8 7 7 7 7 8 9 10 11 12 12 12
17 16 16 14 13 10 10 9 8 8 8 7 7 7 7 7 8 8 6 6 6 6 7 7 7 8 9 10 11 12 13 14 14
18 18 20 16 14 12 12 12 11 9 9 8 7 7 7 7 8 8 6 6 6 5 5 7 8 8 9 12 13 14 16 16 15
20 23 22 19 17 14 14 13 12 11 9 8 7 7 7 8 9 7 6 5 5 5 6 8 10 10 12 12 14 16 18 17 16
24 25 21 21 20 18 16 14 13 12 9 8 7 7 7 6 6 6 6 5 6 6 8 11 9 11 10 14 16 16 17 18 19
27 24 23 23 25 23 19 15 14 13 10 9 7 7 6 5 4 4 5 7 7 8 11 10 12 12 13 17 17 18 17 20 20
26 27 26 28 28 25 20 17 17 15 12 9 8 8 7 6 5 5 6 8 8 11 10 13 14 15 18 19 19 18 19 18 19
28 28 31 31 29 27 24 20 19 18 14 10 8 6 8 8 8 9 9 9 10 11 13 16 18 19 22 22 22 22 19 19 18
32 30 31 33 32 30 25 22 21 19 16 12 9 5 5 7 9 10 11 12 12 13 15 18 20 24 24 24 24 22 22 21 17
34 32 34 35 33 31 27 24 22 21 18 14 11 10 9 5 5 9 11 13 14 16 18 21 22 22 24 23 22 23 23 20 18
37 33 36 38 36 33 29 27 25 22 19 16 13 11 11 11 11 10 11 14 17 21 21 20 22 21 21 21 23 23 23 21 21

GFSFLT1_850_spd_045.txt.gz
Wind_Speed
8 8 10 13 13 11 9 7 3 1 6 8 8 6 5 6 7 7 8 9 9 7 5 5 5 3 2 1 3 4 4 3 1
9 10 10 11 11 10 9 6 5 7 8 8 6 5 4 5 5 3 5 8 6 7 6 6 3 4 6 1 2 3 3 2 3
10 11 12 12 12 11 11 10 10 9 7 6 4 4 3 2 3 2 1 3 3 4 2 0 3 4 3 4 6 1 4 2 2
11 11 11 11 12 12 11 10 8 7 6 5 4 4 4 3 2 1 2 5 5 2 2 2 4 6 5 4 4 4 4 4 3
11 11 11 11 11 11 10 8 7 5 4 3 4 3 3 3 2 1 4 5 4 4 4 5 6 6 5 5 6 6 6 5 5
12 11 10 11 11 10 8 7 5 4 4 3 3 2 2 3 4 4 6 7 5 6 6 5 6 5 6 6 7 7 7 8 8
13 11 11 11 11 10 8 7 6 4 4 3 2 4 4 5 6 6 6 7 6 8 6 5 6 7 7 7 6 6 7 7 7
17 14 14 13 13 11 9 8 6 6 5 5 5 5 6 7 7 7 7 6 8 9 5 5 6 5 6 7 6 6 6 6 7
19 17 15 13 12 11 10 9 8 7 6 5 6 6 7 7 7 7 6 6 9 11 8 5 5 6 6 7 7 8 8 8 9
19 18 16 14 14 12 11 10 9 8 7 6 7 7 7 7 7 6 6 7 8 8 7 6 6 7 8 9 9 10 10 10 10
21 18 17 15 14 13 11 10 9 9 8 8 8 7 7 7 7 6 6 6 6 6 6 6 6 7 9 10 11 12 13 13 13
22 21 19 16 16 15 14 13 12 11 10 9 8 8 7 7 7 7 5 4 5 5 5 5 6 7 9 11 12 13 15 15 15
24 23 20 18 19 18 14 13 13 12 11 10 8 8 8 8 7 5 5 5 4 5 5 5 8 6 8 10 12 14 17 17 16
26 24 21 22 22 20 17 15 15 13 13 12 10 9 9 9 6 5 5 4 4 5 5 9 8 8 9 11 13 14 16 17 18
24 24 22 25 25 23 21 18 17 15 15 13 12 10 10 9 7 6 6 6 7 6 8 9 10 11 11 14 16 17 17 19 18
27 25 25 28 28 25 23 21 21 18 17 15 13 12 11 11 10 8 8 9 9 9 11 11 12 15 16 18 20 19 19 18 16
30 29 28 30 30 29 27 26 24 21 19 17 15 9 12 15 13 11 11 12 12 12 13 14 16 18 20 22 22 22 24 20 17
33 31 30 32 32 32 30 29 27 24 22 21 16 7 8 9 13 15 15 14 14 14 15 16 19 23 24 24 24 23 22 21 19
35 36 30 34 33 34 35 32 29 26 25 23 22 20 14 9 7 12 14 15 16 16 17 18 24 24 24 24 24 23 23 23 17
39 39 35 35 36 35 37 33 31 28 27 25 23 20 18 16 15 10 12 14 16 17 19 23 23 24 23 23 24 25 24 24 25

GFSFLT1_850_spd_048.txt.gz
Wind_Speed
7 9 13 15 13 12 10 7 2 1 5 7 7 6 7 7 7 8 9 10 10 9 6 5 9 4 4 2 2 4 4 6 2
7 9 9 12 12 11 9 6 3 6 6 6 5 5 6 6 5 6 8 10 8 7 7 5 5 5 7 6 7 7 0 1 2
9 10 10 11 10 9 8 8 8 7 5 4 3 3 2 3 4 4 4 5 3 3 1 1 0 2 3 4 1 1 2 4 6
10 11 11 12 12 11 11 11 8 6 4 2 1 2 3 2 1 1 1 3 4 1 1 2 5 7 5 3 5 6 6 5 3
10 11 11 11 12 12 11 9 6 4 2 2 3 3 2 2 1 1 2 2 4 3 4 6 7 7 4 5 6 6 7 6 5
10 10 10 11 11 10 9 7 5 3 3 3 3 3 2 2 3 3 4 3 5 5 5 6 7 7 5 5 6 6 7 7 7
11 10 10 11 11 10 8 7 5 4 3 3 2 2 3 3 4 4 4 4 7 7 5 6 6 7 5 5 5 6 6 6 6
15 13 12 12 12 11 9 7 7 5 5 4 4 4 4 4 5 5 6 6 10 8 5 4 5 5 5 5 5 5 5 6 6
17 15 13 13 12 11 9 9 8 7 6 6 6 5 5 6 6 6 6 7 9 9 6 4 4 5 5 5 6 7 7 8 8
17 18 16 14 13 12 11 11 10 9 8 6 7 6 7 7 6 6 6 7 8 8 5 4 4 5 6 6 7 7 8 8 8
19 19 19 17 15 14 13 12 11 10 9 7 8 8 7 7 6 5 5 6 7 6 6 4 4 5 7 8 8 10 10 10 11
22 21 21 18 16 16 16 14 13 12 11 9 9 8 8 7 7 6 5 5 6 6 5 4 4 6 7 8 10 11 12 13 14
26 24 22 20 19 19 18 15 15 14 12 11 10 10 9 8 8 7 6 6 6 6 6 5 6 6 6 7 9 11 13 15 15
30 28 24 23 22 23 21 18 16 15 14 13 12 11 11 10 9 8 8 7 6 6 6 7 7 7 8 9 10 13 14 15 17
31 30 28 27 26 26 25 22 19 17 16 15 14 13 13 12 11 10 10 9 9 8 9 9 9 9 10 12 13 15 16 17 18
30 29 30 30 31 29 26 25 23 21 19 17 17 15 15 15 14 13 12 11 12 11 11 11 12 12 14 15 17 18 17 18 19
31 33 31 33 32 31 31 29 27 25 23 21 18 12 17 19 18 17 15 14 15 14 14 14 15 16 17 19 20 20 20 20 19
33 33 35 33 33 34 33 32 31 29 26 24 19 8 10 12 17 20 18 17 17 16 16 17 18 20 22 22 22 22 22 21 20
36 35 34 34 35 36 36 34 32 32 29 25 27 26 17 9 8 17 20 18 18 18 18 19 20 22 24 24 23 24 22 22 22
38 36 37 37 39 37 37 37 31 35 33 31 32 29 27 23 20 12 15 17 18 19 20 21 22 25 24 24 23 24 25 25 24

GFSFLT1_850_spd_051.txt.gz
Wind_Speed
12 13 16 16 14 14 11 6 1 1 6 8 8 8 8 8 8 9 10 10 10 7 5 8 11 5 4 3 3 2 2 3 4
9 11 15 14 14 12 9 6 3 6 8 8 7 6 7 7 7 8 8 10 8 7 6 5 8 9 10 11 12 11 7 4 3
9 10 12 14 13 11 8 6 7 7 7 6 5 5 5 5 5 5 5 4 3 1 2 2 1 2 1 2 3 1 1 7 10
10 11 12 12 11 10 10 9 7 6 4 3 3 3 4 3 3 3 3 2 1 1 1 3 4 5 6 5 5 7 7 4 5
9 11 12 12 12 11 11 8 6 4 3 3 4 4 4 2 1 1 2 3 5 3 4 6 7 7 6 6 6 7 7 6 4
10 10 11 11 12 11 10 7 5 3 3 4 4 3 3 2 1 1 2 5 6 4 5 6 7 5 4 4 5 5 6 6 6
11 11 11 12 11 11 9 8 6 4 4 4 3 2 2 3 3 4 3 5 6 5 5 5 5 4 3 3 3 4 4 4 5
14 13 13 13 13 11 9 8 7 6 4 3 3 3 3 3 4 5 3 7 9 6 5 4 4 3 3 3 3 3 3 4 4
16 15 13 13 13 12 10 9 7 6 5 5 5 4 4 5 5 6 6 9 9 7 4 3 3 3 3 3 4 4 4 5 6
18 17 16 15 14 13 12 11 10 9 7 7 7 6 6 6 6 6 7 9 9 7 5 4 3 3 4 5 5 5 6 6 7
19 18 19 18 16 15 14 13 12 11 10 9 9 8 8 7 7 7 8 9 9 8 6 4 4 4 5 6 7 7 7 7 8
22 21 20 21 19 18 17 16 15 13 12 11 10 10 9 8 8 8 9 9 9 8 7 5 4 5 6 6 8 9 9 10 11
24 24 22 21 23 21 20 19 17 16 14 13 12 12 11 10 10 10 10 9 9 9 7 6 6 6 6 7 8 10 11 13 14
28 28 25 24 25 25 23 22 20 17 16 15 14 14 13 12 11 11 11 11 10 10 9 9 8 8 7 8 9 11 13 15 15
30 29 29 28 29 28 26 25 23 20 18 17 16 16 16 14 14 13 14 13 12 12 10 10 10 9 9 10 11 12 15 15 15
30 29 30 32 34 32 29 28 28 25 22 20 19 19 18 18 17 16 16 16 15 14 13 13 12 12 12 13 13 16 16 16 17
31 32 31 33 36 35 34 32 33 30 27 24 20 15 20 22 21 20 19 19 18 17 16 15 15 15 15 16 17 18 18 17 17
34 34 33 33 37 38 37 36 35 34 31 30 21 9 13 12 21 24 23 22 21 20 19 18 18 18 18 19 21 20 20 19 18
39 35 35 34 35 37 39 38 37 37 36 33 31 26 23 14 10 18 23 24 23 22 21 21 21 20 20 21 22 23 22 21 21
40 39 36 36 35 36 37 40 41 41 40 40 36 29 32 33 29 23 22 22 24 23 23 22 22 22 23 23 23 24 22 22 23

GFSFLT1_850_spd_054.txt.gz
Wind_Speed
13 13 11 12 12 15 9 4 0 1 6 8 8 7 7 8 7 9 8 6 7 5 7 6 7 5 4 3 1 2 1 4 3
12 15 14 12 12 11 8 4 1 5 7 7 7 6 7 7 7 8 8 8 7 9 7 9 9 10 11 11 12 9 10 5 3
10 13 12 13 12 10 8 5 5 6 6 6 5 5 6 7 5 6 5 4 4 1 2 2 3 2 2 4 3 1 3 5 8
9 12 14 14 12 10 8 7 7 6 4 4 4 4 5 5 4 5 3 3 0 2 1 2 2 4 5 5 6 5 5 6 6
9 11 13 13 12 11 10 9 6 5 3 3 3 5 4 3 4 4 4 4 4 1 3 6 5 6 6 5 6 6 6 5 6
10 11 12 13 12 11 10 8 6 4 4 4 4 4 4 3 3 3 3 6 5 5 6 7 6 5 5 5 4 5 4 4 5
10 11 11 11 10 10 9 7 6 5 5 5 5 4 4 4 3 4 4 7 4 5 6 6 4 4 3 3 3 3 3 4 4
13 12 13 11 13 10 10 9 8 7 7 6 5 5 5 4 4 5 5 8 6 6 5 5 3 3 2 2 2 3 3 4 5
14 13 13 13 12 12 11 10 10 10 8 7 7 6 7 6 6 5 7 10 8 6 5 4 4 3 3 2 3 3 3 4 5
16 15 15 14 14 14 13 13 12 11 10 9 8 8 8 7 7 4 9 11 9 8 6 5 5 4 4 4 4 4 5 5 5
18 17 17 17 16 15 14 15 15 14 12 12 11 10 9 9 8 5 7 11 11 9 8 6 6 5 5 6 5 4 4 4 6
21 19 18 18 18 18 18 18 18 17 16 14 13 11 11 10 10 9 8 10 12 11 10 8 7 7 7 6 6 6 7 7 8
24 22 20 19 19 20 22 22 21 19 18 17 15 14 13 12 12 12 12 11 10 12 12 10 9 8 7 7 7 8 8 10 11
27 25 23 22 21 23 25 25 23 22 20 19 17 16 15 15 15 13 14 14 14 13 12 12 10 10 9 9 9 10 10 12 13
29 29 27 25 25 26 26 28 26 24 22 21 20 19 18 18 18 17 17 17 16 16 16 13 13 12 11 11 11 11 13 14 14
31 31 31 29 30 29 29 29 29 29 27 23 23 21 21 21 21 20 19 19 19 19 18 17 16 16 14 14 14 14 15 16 15
36 35 34 33 32 32 33 34 35 32 33 28 15 11 19 25 24 23 22 22 22 22 21 21 19 19 18 18 17 17 18 17 16
43 41 37 37 35 35 37 38 39 38 36 35 19 10 12 14 21 26 25 25 25 25 25 24 24 22 22 20 20 21 20 18 18
42 43 42 41 40 37 39 40 41 41 42 38 38 32 13 13 11 18 20 26 27 27 28 28 27 25 25 23 23 23 22 22 21
42 42 40 43 43 41 40 41 43 45 45 43 42 41 40 34 26 19 22 26 28 30 30 30 29 28 26 25 26 25 24 24 23

GFSFLT1_850_spd_057.txt.gz
Wind_Speed
10 10 9 9 8 10 6 1 4 4 5 7 7 8 10 14 7 7 7 5 7 10 9 9 8 8 9 6 7 5 3 6 4
9 10 9 9 9 8 5 1 1 4 6 6 6 7 11 11 5 7 5 9 10 9 11 11 9 11 9 10 9 13 10 5 5
8 11 10 8 9 8 5 2 2 4 5 5 5 6 12 8 6 3 1 3 1 1 1 2 1 1 2 5 4 3 3 5 6
8 10 11 10 10 8 6 4 5 4 3 3 4 5 11 8 4 2 1 1 2 4 2 2 2 4 6 7 4 3 4 4 4
8 9 11 12 10 9 7 7 6 4 3 3 4 6 9 4 4 2 7 4 5 7 5 5 5 5 5 5 5 4 4 5 6
9 11 11 11 10 9 9 7 5 3 3 4 5 6 3 3 3 6 6 5 5 6 6 7 5 5 4 4 4 3 2 3 4
8 10 11 12 12 10 9 7 6 3 2 4 4 4 4 4 4 10 7 5 5 5 6 6 5 4 3 3 3 3 2 2 2
12 12 13 14 13 12 11 10 8 5 7 5 3 6 5 3 4 10 7 7 5 6 6 5 4 4 3 2 2 3 3 3 3
12 10 12 11 11 12 9 8 8 11 10 8 7 7 6 5 6 11 9 7 7 6 6 4 4 4 3 3 3 3 3 3 4
13 13 12 12 13 11 13 13 12 11 10 10 9 8 7 7 7 8 10 9 8 8 7 6 5 5 3 2 2 3 3 3 4
16 15 15 15 15 15 15 15 13 12 12 12 11 9 9 8 9 7 12 10 9 9 8 7 6 6 4 4 3 2 2 2 4
18 18 18 17 16 16 16 15 15 14 13 13 13 13 11 10 10 10 10 11 10 11 10 9 8 7 6 6 4 3 2 3 4
22 22 21 19 19 18 18 17 17 16 16 15 15 15 15 13 12 12 13 13 11 11 12 11 10 9 8 8 7 6 5 6 7
23 23 22 21 22 25 21 20 20 18 18 17 17 17 17 16 15 16 15 16 14 14 12 13 13 11 10 11 10 9 8 9 10
26 26 23 22 25 29 27 24 23 21 20 18 18 19 19 18 18 18 18 18 16 17 18 14 15 14 14 13 13 12 12 11 12
28 31 28 27 28 29 30 26 26 26 23 21 22 20 22 22 22 20 21 21 19 19 21 18 18 16 17 16 16 16 15 14 15
34 33 32 31 32 30 32 29 30 29 29 30 20 12 20 26 27 26 25 24 23 22 23 22 21 21 19 21 19 19 18 17 17
34 36 35 35 35 35 35 35 35 35 35 36 23 10 13 16 23 30 29 27 28 26 26 25 25 24 24 25 22 23 21 20 19
37 38 37 39 36 37 39 39 40 39 39 38 39 29 16 14 12 23 30 30 30 29 29 27 27 27 26 27 27 26 23 22 22
35 36 39 41 39 41 40 39 41 45 40 44 41 42 38 28 20 17 23 27 31 32 31 29 29 28 28 30 29 29 26 25 23

GFSFLT1_850_spd_060.txt.gz
Wind_Speed
11 9 12 11 10 8 3 4 7 8 10 11 12 15 18 13 7 7 7 6 15 14 12 13 14 16 15 15 14 7 8 7 6
10 9 10 9 10 6 3 3 5 7 8 9 10 14 17 11 5 5 6 11 10 11 11 8 7 8 7 7 9 12 9 9 9
7 8 8 8 9 6 3 1 4 6 6 7 10 15 15 11 4 2 3 1 1 4 2 2 1 2 3 5 4 2 3 4 8
7 8 8 8 8 6 4 2 4 5 5 5 8 12 14 8 2 1 2 1 2 4 4 1 1 3 4 5 2 2 3 3 4
7 8 8 7 7 6 4 4 4 3 3 4 7 13 10 5 5 4 6 6 6 6 4 3 3 4 3 2 2 2 3 4 5
7 9 8 7 7 7 6 6 4 2 2 4 7 11 8 5 7 8 7 6 7 6 5 5 4 3 2 1 1 0 1 1 3
8 7 8 10 10 10 8 8 6 4 4 4 6 7 8 8 10 10 8 7 7 5 6 4 3 3 2 2 2 2 2 1 1
9 9 10 11 11 11 10 9 8 6 5 5 7 7 8 8 13 11 8 7 6 6 5 5 3 2 2 1 1 2 2 2 2
11 12 11 13 13 12 11 9 9 11 12 10 6 10 10 11 13 12 9 9 7 6 6 5 3 2 2 1 1 1 1 1 1
14 13 12 12 13 8 11 7 8 10 12 12 11 13 10 12 15 14 12 9 9 8 7 5 5 4 3 2 1 1 0 0 1
17 14 15 13 12 13 10 13 16 17 14 14 15 15 12 12 15 15 13 11 10 10 9 7 6 5 4 4 3 2 1 0 1
20 18 19 20 18 20 18 20 19 19 17 18 18 18 16 16 16 17 16 14 10 11 11 9 8 7 6 6 5 4 3 2 2
24 23 22 21 20 20 23 22 21 21 21 22 20 20 19 18 17 17 20 17 14 12 12 12 11 10 9 9 7 7 5 4 4
24 26 26 24 24 23 23 24 25 26 25 25 22 22 22 21 19 20 20 21 18 15 14 13 14 13 12 13 10 10 8 7 7
26 27 28 28 28 28 29 28 27 28 27 25 22 25 24 23 23 23 22 23 23 20 18 16 16 16 16 16 14 13 11 10 10
29 31 30 30 30 32 33 33 30 31 28 23 25 26 28 27 27 25 25 26 26 24 24 20 20 20 20 19 18 16 16 14 13
30 33 34 34 34 34 35 35 35 33 32 31 27 25 29 32 31 30 29 29 28 27 27 27 24 23 23 22 22 20 19 17 16
31 32 33 35 34 34 37 37 39 36 37 36 30 14 17 20 29 35 34 33 33 31 29 30 28 27 26 25 23 22 21 20 20
29 32 36 35 34 35 35 36 40 38 40 38 41 35 16 14 13 24 31 35 36 35 33 32 30 30 31 28 26 25 25 23 23
31 33 28 37 35 37 37 38 38 40 43 44 43 43 40 24 25 25 26 31 35 37 37 33 32 32 34 32 30 28 29 25 25

GFSFLT1_850_spd_063.txt.gz
Wind_Speed
12 15 13 12 11 6 3 7 9 12 14 15 17 15 15 12 10 5 8 15 15 12 13 14 17 16 14 17 10 9 8 8 8
12 14 13 12 12 7 2 5 9 11 12 14 16 14 13 11 5 7 10 13 13 11 8 5 5 6 4 6 10 11 12 11 12
11 11 11 11 10 6 3 5 7 8 10 12 15 14 11 10 6 4 3 1 1 2 4 4 3 3 3 4 1 3 4 6 8
11 10 10 8 8 5 3 4 6 7 8 11 13 13 8 6 2 3 2 2 3 3 3 3 3 4 5 4 3 3 5 5 6
8 10 9 8 7 6 4 5 5 5 6 8 12 12 7 4 3 3 2 5 6 5 4 3 4 3 3 2 3 4 5 6 6
8 8 10 10 9 7 6 6 5 4 4 7 12 11 8 6 4 4 4 5 6 6 4 3 3 2 1 1 1 2 3 4 4
7 8 8 10 10 9 9 9 7 6 6 8 11 10 9 7 8 8 8 8 7 5 4 4 3 1 1 1 2 2 2 3 3
8 8 9 10 11 10 10 10 9 8 8 10 10 10 10 10 11 10 10 9 9 6 5 4 3 2 2 2 3 3 3 3 3
8 9 11 11 11 11 11 11 10 11 11 11 11 12 10 14 13 12 11 11 11 9 6 5 5 4 3 4 4 4 4 3 3
10 11 12 11 13 13 13 13 11 12 14 12 12 13 12 16 17 15 14 13 12 12 9 7 7 6 6 6 5 5 5 4 4
15 15 14 13 12 13 11 12 13 13 13 15 17 16 15 15 18 18 17 15 13 14 12 9 8 8 8 8 7 6 6 5 4
21 19 18 16 15 14 12 12 14 16 19 19 19 19 19 18 19 19 20 17 16 15 15 13 11 10 10 10 9 8 7 7 6
24 24 21 19 19 18 19 18 20 23 25 24 22 21 22 22 22 22 22 22 18 17 17 16 13 13 12 11 11 10 10 9 8
21 23 24 23 23 24 23 24 27 28 29 27 25 25 24 25 26 26 25 24 22 20 19 18 16 16 15 14 14 13 12 11 10
24 24 23 26 27 27 28 28 28 29 30 30 30 29 28 27 28 29 29 27 27 25 23 21 19 19 18 18 18 16 15 14 13
27 29 29 28 29 30 31 31 33 34 32 31 31 32 30 31 32 31 32 32 30 29 28 25 23 22 21 22 22 20 19 17 15
31 30 30 31 33 32 32 35 38 38 38 34 33 27 33 36 38 36 35 35 34 33 31 31 28 26 25 24 25 24 22 20 18
26 34 31 32 32 34 35 36 39 41 40 40 32 15 23 26 34 39 40 39 38 38 36 33 33 31 28 27 28 27 25 23 21
22 19 25 31 34 36 36 36 40 39 43 40 43 42 28 18 14 25 31 37 40 39 39 37 35 34 32 30 30 27 25 25 23
22 24 26 25 25 30 36 36 38 40 40 45 44 47 49 40 30 29 29 28 34 38 39 37 34 34 35 34 32 29 28 26 24

GFSFLT1_850_spd_066.txt.gz
Wind_Speed
16 14 13 11 7 4 7 9 12 14 14 14 14 12 11 11 8 8 13 14 11 12 13 15 12 12 14 11 9 7 7 7 7
14 12 11 10 8 5 5 8 11 12 13 12 11 11 10 9 7 10 13 14 11 8 5 3 3 2 6 8 10 11 10 11 10
12 12 10 10 9 6 5 7 9 10 11 10 9 10 9 7 6 6 5 3 2 4 5 5 3 5 3 3 5 6 8 8 7
12 12 12 11 8 6 5 7 8 9 10 10 9 7 6 5 3 2 2 4 3 4 5 5 5 6 5 7 6 8 8 9 8
11 12 12 10 9 6 5 6 7 7 8 10 9 7 5 4 2 2 3 5 5 5 6 5 5 6 5 6 6 8 9 9 9
8 10 11 10 10 8 7 8 7 7 8 10 11 10 7 4 4 4 5 6 7 7 6 6 5 5 5 5 5 6 7 8 8
8 9 9 9 9 9 9 10 9 8 8 10 13 12 10 7 6 7 8 9 10 9 8 7 6 5 4 4 4 5 5 5 5
9 10 11 10 10 10 10 11 10 9 9 11 14 14 13 11 9 9 11 11 11 9 9 9 7 6 5 5 5 5 5 5 5
9 8 9 10 10 11 11 11 12 11 11 12 14 15 14 14 13 11 12 13 14 12 10 10 9 8 7 7 7 6 5 5 5
11 8 9 10 12 13 13 13 14 14 14 14 15 15 16 16 16 16 15 15 15 15 13 12 11 10 10 9 8 8 7 6 6
12 9 10 11 13 12 14 13 15 15 15 15 17 17 18 19 18 20 19 17 17 17 16 14 13 12 12 11 10 10 9 8 8
14 13 15 14 14 14 14 16 16 17 18 18 18 18 21 21 22 22 22 20 19 18 18 17 16 14 13 13 13 12 11 10 9
17 17 20 19 18 17 17 17 19 20 22 23 22 22 23 25 25 25 25 24 22 21 20 20 18 17 16 15 15 14 14 12 11
20 21 21 22 22 22 22 22 22 24 25 26 25 27 27 25 26 28 28 28 28 25 22 21 21 20 19 17 17 17 16 15 14
24 24 24 23 24 25 26 27 27 28 28 30 31 32 31 30 30 31 31 32 31 30 27 25 24 22 22 21 20 19 19 18 17
28 27 26 27 28 28 28 29 31 32 32 34 35 35 35 35 36 35 34 35 35 34 33 29 27 25 24 24 24 22 22 20 19
29 30 29 30 32 33 32 33 34 34 35 38 38 34 36 40 41 40 40 39 38 38 36 35 32 29 27 26 26 25 24 21 19
25 26 27 30 33 34 33 35 37 36 37 38 34 16 24 30 32 32 36 41 41 40 39 38 36 33 30 28 26 27 27 23 18
26 22 20 21 23 27 29 31 34 37 40 39 39 41 43 28 25 26 28 30 38 41 42 41 40 37 34 31 27 26 29 29 24
21 22 21 20 20 22 22 25 26 31 34 37 37 38 43 46 46 38 35 37 35 32 37 42 43 39 38 34 33 34 31 33 29

GFSFLT1_850_spd_069.txt.gz
Wind_Speed
13 12 11 7 4 7 8 9 9 10 8 7 8 8 9 9 8 9 11 10 10 10 11 9 10 11 10 8 7 6 6 6 7
12 10 9 6 4 6 7 7 7 7 7 6 6 7 8 8 8 10 10 10 4 2 4 4 3 4 5 5 7 8 9 7 9
12 10 8 6 4 4 4 5 6 6 6 5 5 5 5 6 6 4 3 2 5 7 9 8 5 3 2 3 2 4 7 7 6
13 10 9 8 5 4 4 6 6 6 6 6 4 4 4 3 2 3 4 5 5 6 8 8 7 5 6 7 6 5 6 6 5
6 8 8 9 7 6 5 7 7 7 7 8 7 5 5 4 2 2 3 4 5 8 9 8 9 7 6 7 7 8 8 10 10
7 7 7 7 7 7 6 8 9 9 9 11 11 8 6 6 5 4 6 8 8 9 9 9 9 8 6 6 6 7 8 9 9
9 10 10 9 9 9 8 8 8 8 9 12 14 11 9 8 8 8 8 10 11 11 11 10 9 9 7 6 6 6 6 6 6
10 10 10 9 9 10 10 11 11 9 9 11 13 14 13 11 10 11 11 12 13 12 12 12 11 9 8 7 7 6 5 5 5
9 8 8 8 8 10 12 12 12 12 11 12 14 16 16 15 14 13 14 14 15 14 14 13 12 11 9 9 8 7 6 6 5
11 9 8 7 10 11 13 14 14 14 14 14 14 17 18 18 17 16 16 16 17 18 17 15 14 13 12 10 10 9 8 8 7
10 11 10 8 9 10 12 14 15 16 16 16 17 17 19 20 20 20 19 18 19 20 19 18 16 15 14 13 12 11 11 10 9
11 12 13 10 10 12 14 14 16 17 18 19 18 18 18 20 21 23 23 21 21 21 21 21 20 18 16 15 14 13 13 12 11
15 15 15 13 13 15 17 17 18 19 20 21 21 21 21 21 22 24 25 25 25 24 23 23 22 21 19 17 17 15 15 14 13
18 19 18 17 18 20 21 21 22 22 23 23 24 24 25 25 24 27 27 27 28 28 26 24 24 24 23 20 17 18 18 17 15
23 23 22 22 22 24 25 26 25 26 27 28 29 28 28 29 30 31 30 30 31 31 31 29 27 26 24 24 21 19 20 20 19
28 28 28 28 29 28 29 29 30 30 29 31 34 34 32 33 34 35 36 36 36 35 34 33 31 29 28 26 26 22 21 21 19
32 30 28 27 27 29 30 32 33 33 33 35 36 37 35 35 36 37 38 37 38 39 37 36 34 33 32 31 28 28 25 23 20
29 29 29 30 29 31 30 31 32 32 34 35 34 18 20 23 23 24 26 29 30 33 35 37 36 36 37 35 33 30 30 26 23
28 29 29 28 26 26 23 21 24 25 28 30 33 37 38 36 32 25 22 24 25 31 31 33 34 34 38 41 39 35 28 30 26
30 29 27 28 25 24 21 21 21 21 22 24 23 25 27 29 35 35 28 31 33 35 37 31 37 37 39 39 40 37 34 30 31

GFSFLT1_850_spd_072.txt.gz
Wind_Speed
11 10 7 6 8 8 8 8 8 8 9 8 8 7 7 7 9 11 11 13 11 9 8 8 9 9 9 10 7 6 5 6 7
10 9 7 5 6 7 7 7 6 6 6 7 7 7 7 8 10 9 10 7 3 6 9 8 5 5 5 8 7 7 6 6 7
11 9 8 6 5 6 6 5 4 3 3 3 4 5 5 6 5 4 3 3 7 9 10 9 7 2 2 1 3 3 4 3 2
11 10 8 6 5 4 4 4 3 2 2 1 0 1 2 2 2 2 3 5 7 8 9 9 8 5 5 6 6 4 5 5 5
4 3 3 3 2 1 1 3 4 4 6 6 4 3 2 2 3 3 4 6 7 9 10 10 10 7 5 6 7 7 7 8 8
7 7 6 6 5 4 4 4 4 5 7 8 8 6 6 5 5 5 7 8 9 11 11 11 11 9 8 6 6 7 7 7 8
7 8 8 8 7 6 6 6 7 7 8 10 10 10 9 8 8 8 9 10 12 12 13 13 12 11 10 8 7 6 5 5 5
7 8 8 8 8 7 8 7 8 9 9 11 12 13 13 11 10 11 11 11 13 13 13 14 13 12 11 10 9 7 6 5 5
7 7 8 7 8 7 9 9 9 10 11 12 14 14 15 15 13 13 13 13 14 15 15 15 14 14 13 12 10 9 7 7 5
9 8 7 7 7 7 8 10 11 12 13 14 15 15 16 16 16 16 15 15 16 18 17 17 16 15 15 13 12 11 9 8 7
8 8 9 7 6 6 7 9 11 13 15 15 16 17 17 17 18 18 18 18 17 18 19 19 18 17 16 16 15 13 12 11 10
8 9 10 9 9 9 9 10 12 14 15 17 16 17 17 18 18 18 18 19 20 20 19 20 21 19 19 17 17 16 15 15 13
12 12 11 10 12 13 13 13 14 16 18 19 19 19 19 20 21 21 20 20 21 22 21 20 22 22 21 20 18 18 17 17 16
17 17 15 14 14 16 18 19 19 20 21 21 22 22 22 22 22 24 24 24 23 24 24 23 23 24 23 22 20 17 20 19 19
21 22 21 21 21 21 22 23 24 25 25 26 28 27 27 27 26 27 28 28 28 28 28 27 25 25 25 24 23 19 20 24 22
24 25 25 26 25 24 25 27 27 28 29 31 32 33 30 30 30 28 30 33 33 32 32 31 29 27 26 27 26 25 21 24 26
27 28 29 30 29 28 26 27 28 29 28 30 32 32 30 33 25 22 18 19 24 28 31 33 31 31 28 29 28 27 26 22 26
28 28 28 27 28 29 29 28 27 28 28 26 27 17 19 24 25 25 24 25 25 25 27 25 24 26 30 29 30 29 29 27 27
26 26 27 28 28 28 27 25 23 21 21 21 22 23 26 28 19 18 21 26 22 23 26 28 26 26 29 27 30 32 35 35 29
28 28 28 26 25 27 27 25 23 21 21 20 20 20 20 20 21 26 21 22 22 24 23 22 23 23 27 28 28 32 32 33 37

GFSFLT1_850_spd_075.txt.gz
Wind_Speed
11 8 8 10 11 12 12 12 11 11 11 10 10 10 9 10 11 11 13 12 8 6 9 8 8 8 9 10 8 7 7 7 7
10 8 7 7 9 9 10 10 10 9 9 10 10 10 10 11 10 10 9 6 6 9 10 7 4 3 5 7 7 6 6 5 5
10 8 7 6 6 6 7 7 7 7 7 7 8 8 8 7 6 5 5 6 9 10 11 9 6 2 1 2 3 3 2 1 0
8 7 5 5 4 4 4 3 3 2 3 4 5 5 5 4 4 4 5 7 8 9 10 10 8 6 2 4 6 6 6 6 6
6 7 6 5 3 2 2 1 0 1 2 3 3 4 3 3 4 4 5 6 7 9 10 10 9 7 6 4 5 8 9 10 6
6 6 6 5 4 2 1 2 3 3 3 3 3 3 3 4 4 5 6 8 8 9 11 11 10 9 8 6 6 6 6 8 7
6 6 6 5 4 4 4 5 6 6 6 6 6 6 6 6 7 7 8 9 11 10 11 13 12 11 11 9 7 6 6 6 6
6 6 6 6 6 6 6 7 7 8 9 8 8 9 9 9 9 9 10 10 11 13 12 12 13 13 11 11 10 8 7 6 5
6 6 7 7 7 7 7 8 8 8 9 10 11 11 11 11 11 11 12 12 13 13 15 13 13 13 13 12 11 10 9 8 7
7 7 6 6 6 6 7 7 8 8 9 11 12 13 13 12 13 13 13 13 14 14 15 16 15 14 14 14 13 12 10 9 8
6 6 7 7 6 6 6 7 7 8 9 10 12 13 13 14 14 14 14 15 15 15 15 17 17 16 16 15 15 13 12 11 10
6 7 7 7 8 9 9 9 9 9 10 10 11 12 13 14 15 16 17 16 16 15 15 16 18 18 17 17 17 16 15 13 12
9 10 9 8 10 11 12 12 13 13 13 13 14 14 15 16 17 19 19 20 19 18 17 16 17 19 20 18 17 15 18 16 14
14 15 13 12 13 15 16 16 17 18 19 19 20 19 19 20 21 22 23 23 23 22 21 21 20 19 20 21 18 16 18 20 19
17 17 17 18 19 20 20 20 21 23 24 25 25 25 25 25 26 25 25 26 26 26 25 25 25 23 21 21 22 19 18 21 23
20 21 21 21 22 22 21 23 24 25 23 26 28 28 26 27 26 25 22 18 20 22 24 27 28 27 24 23 22 23 21 20 24
24 24 24 24 24 24 26 26 26 26 25 25 27 25 22 23 21 14 15 16 20 21 22 21 22 23 23 24 24 24 24 23 22
26 26 27 27 27 26 26 26 27 27 25 24 22 12 13 16 20 19 18 20 20 20 22 20 19 18 21 22 23 25 26 26 25
24 24 24 25 26 27 26 24 25 24 24 22 20 20 21 14 13 12 15 18 20 17 19 19 21 21 22 21 21 21 25 28 28
25 26 27 27 27 27 26 25 25 24 23 21 20 19 19 19 19 21 15 15 17 19 19 17 17 19 21 21 21 21 22 24 26

GFSFLT1_850_spd_078.txt.gz
Wind_Speed
8 8 10 11 12 12 12 12 12 12 12 12 11 10 10 12 10 13 13 7 8 10 10 8 9 8 8 8 7 6 5 5 3
7 6 7 9 10 11 11 11 11 11 10 11 11 11 11 10 9 8 6 4 9 10 10 6 2 3 5 6 6 5 4 3 1
8 6 5 7 8 7 7 7 7 7 8 8 8 9 10 8 6 5 4 7 8 9 9 7 5 4 1 1 2 2 3 2 4
6 5 4 4 5 5 5 5 5 5 5 5 5 5 5 4 4 5 5 8 9 10 10 9 7 5 2 4 6 7 7 7 8
7 7 6 4 2 2 2 1 2 2 2 1 2 2 2 1 4 4 4 6 7 8 9 10 9 8 7 5 7 9 10 12 13
4 5 5 4 3 2 2 2 2 2 2 3 2 2 2 3 2 3 6 6 7 8 8 9 9 8 7 6 5 6 8 9 10
6 6 6 6 5 5 5 5 5 5 5 5 5 4 5 5 5 6 7 8 9 9 9 10 10 9 9 8 8 7 6 7 8
7 7 6 7 7 6 6 7 6 8 8 8 7 7 7 6 8 8 8 9 9 11 11 11 11 11 10 10 9 9 8 7 7
6 7 7 7 7 7 7 7 8 10 10 9 9 9 9 8 9 9 10 10 10 10 12 12 12 12 11 11 10 9 8 8 8
7 7 7 7 6 6 6 7 8 9 9 10 10 10 10 10 11 10 10 11 12 12 12 13 14 14 13 13 12 11 11 10 9
7 7 7 8 7 7 6 6 7 7 8 9 10 9 10 11 11 12 12 12 13 13 13 14 14 15 15 15 15 14 12 11 11
6 6 6 7 9 9 9 9 9 9 9 9 10 11 11 12 13 14 14 16 16 15 15 15 15 16 16 15 14 16 16 13 11
8 8 7 8 10 11 12 12 13 13 13 13 12 14 14 15 15 17 18 19 19 20 19 18 17 18 19 18 16 16 19 19 16
11 12 12 12 14 14 15 15 16 16 16 18 19 19 20 20 21 21 20 22 23 23 23 20 20 20 21 20 19 19 19 21 21
15 16 15 16 18 19 19 19 20 22 21 21 23 22 22 22 22 20 19 17 20 22 24 25 26 25 24 23 21 20 20 21 23
19 19 19 20 20 20 21 22 23 24 22 21 20 16 16 20 18 21 16 16 16 16 13 17 19 22 21 22 23 23 23 22 23
22 23 24 24 25 24 24 24 24 26 24 21 20 16 16 17 13 10 12 13 18 19 21 21 19 19 19 21 21 22 24 25 25
24 25 26 26 27 27 27 26 26 25 26 24 19 11 12 11 12 15 19 19 16 17 20 23 22 21 20 22 22 22 24 26 27
24 25 25 25 25 26 27 27 26 23 24 25 23 22 21 15 13 12 16 18 17 16 19 21 24 23 22 22 21 21 22 23 25
25 25 25 26 27 28 28 27 27 24 24 22 22 21 19 18 19 17 13 14 14 18 14 17 17 17 21 21 22 20 21 23 24

GFSFLT1_850_spd_081.txt.gz
Wind_Speed
11 12 12 12 13 13 13 13 13 12 12 11 12 13 15 17 10 7 8 8 11 10 8 7 7 8 9 9 9 8 6 5 5
9 10 11 11 11 11 11 11 11 11 11 11 12 13 16 10 8 10 6 9 10 10 9 7 5 4 4 7 7 6 5 4 5
7 6 8 9 8 8 8 8 8 9 9 9 10 10 13 7 4 4 5 9 10 11 10 9 8 6 2 2 1 2 3 5 7
4 5 5 6 6 6 5 5 5 5 5 6 6 5 7 7 2 5 4 8 9 10 10 10 9 7 4 4 6 8 9 10 12
5 5 4 2 3 3 2 2 2 2 2 2 2 2 3 3 4 3 5 7 8 9 9 10 9 9 8 7 6 7 9 11 12
2 3 3 3 2 2 2 1 1 2 2 3 3 3 4 3 3 3 7 7 7 7 8 8 9 9 9 8 8 8 8 9 11
8 4 4 4 4 5 5 4 4 4 3 7 4 4 5 4 5 7 8 8 8 7 7 8 8 9 9 8 7 7 7 8 8
7 5 6 6 6 6 7 6 5 4 6 6 4 7 6 4 6 9 10 9 9 10 9 8 9 9 9 9 9 9 10 9 9
5 4 5 6 5 4 6 5 6 8 8 7 7 8 8 6 7 8 11 11 11 10 11 12 10 10 10 10 10 9 9 10 10
6 6 6 6 6 6 6 6 6 7 7 8 8 8 8 8 8 9 13 11 11 11 11 12 13 12 12 12 11 11 10 10 9
8 6 6 6 6 6 6 5 6 6 7 8 8 9 9 10 10 11 13 14 12 13 12 12 13 13 15 15 15 14 12 11 10
7 6 6 6 7 8 8 8 9 9 9 9 9 10 10 12 12 14 15 14 16 14 14 15 15 15 15 15 16 17 18 16 13
7 7 7 7 8 9 9 9 9 10 10 10 10 12 14 13 14 14 15 17 18 18 18 17 17 17 16 17 17 17 18 20 18
9 9 9 9 10 11 11 11 11 12 13 14 15 17 16 16 15 17 17 16 18 20 18 20 20 18 18 19 21 19 19 21 22
12 11 11 11 12 14 13 14 14 16 17 17 18 21 20 18 19 17 17 16 17 16 18 17 18 18 18 20 22 21 20 21 22
15 15 13 13 15 14 15 16 19 20 19 20 22 21 16 17 20 16 16 13 14 17 16 16 19 16 19 20 19 20 23 22 23
18 18 19 19 20 21 20 20 20 22 21 19 19 17 18 16 19 13 11 11 13 16 19 18 18 19 20 18 20 19 21 24 24
21 21 23 24 24 24 24 24 22 22 21 18 18 12 11 11 11 11 10 10 14 16 17 17 19 19 16 17 18 21 21 21 25
22 23 24 24 25 25 25 24 24 22 25 23 24 23 23 15 13 13 11 13 19 9 10 11 11 15 15 16 20 20 20 21 22
24 24 25 24 25 25 25 25 25 24 22 22 23 25 24 23 21 18 19 16 12 9 12 18 17 21 22 20 20 20 20 20 19

GFSFLT1_850_spd_084.txt.gz
Wind_Speed
16 16 16 16 16 16 16 15 15 14 14 14 16 18 16 14 10 5 10 12 12 11 9 9 8 9 11 10 10 9 8 6 7
14 14 14 14 14 14 14 14 14 14 13 14 15 16 15 13 7 6 10 10 11 11 11 10 8 5 5 6 6 5 5 6 7
10 11 11 12 11 11 11 11 11 11 11 11 12 12 13 8 1 5 8 9 10 11 11 10 9 7 4 3 2 3 5 7 9
8 9 9 9 9 9 8 7 7 7 7 7 7 6 7 3 5 5 7 8 9 9 9 9 9 8 6 5 5 6 7 9 11
7 8 7 6 6 5 4 4 4 4 4 4 3 4 4 5 6 6 7 8 8 8 8 8 8 8 7 7 6 6 7 9 10
5 5 4 2 2 2 1 1 1 1 1 2 3 2 2 3 5 9 8 9 8 8 8 8 8 8 8 8 8 8 8 9 9
4 2 2 2 2 2 2 2 2 2 2 2 3 2 3 3 5 10 10 10 10 9 8 8 8 8 8 8 8 8 8 8 9
6 4 3 4 4 4 3 3 3 3 4 7 6 6 7 5 4 11 12 12 11 11 11 10 10 9 9 8 8 8 8 8 7
5 3 3 3 2 4 6 7 6 9 8 6 7 7 9 7 6 12 12 12 12 12 12 13 11 11 10 10 10 10 9 8 8
6 5 6 4 4 6 6 6 5 7 7 8 10 9 8 8 9 12 13 13 12 12 13 13 14 13 13 12 12 12 10 9 9
9 8 7 7 6 6 5 5 6 6 8 8 9 10 11 10 11 13 15 16 14 13 14 14 14 15 14 16 16 16 15 11 11
9 7 6 5 6 6 7 8 9 10 9 10 10 10 11 12 15 16 17 19 18 17 15 15 15 15 16 15 16 17 16 18 16
7 7 7 6 7 9 9 9 10 11 11 11 11 11 16 18 17 16 17 17 21 22 20 18 19 17 18 18 16 16 19 19 18
7 7 7 8 9 11 11 11 11 12 12 14 14 16 21 19 18 19 17 18 18 19 20 19 21 18 16 17 19 19 18 20 21
11 10 9 10 11 12 12 13 13 15 16 18 19 20 21 22 18 18 18 16 16 19 19 21 17 14 14 15 16 17 19 20 20
14 14 11 13 14 14 13 15 16 19 20 21 22 20 19 18 17 18 16 9 13 15 21 18 16 15 15 16 17 17 17 19 21
16 15 16 17 18 18 18 19 20 20 18 18 18 19 20 18 13 15 15 12 15 16 18 16 14 15 15 17 19 19 18 18 19
18 18 19 20 21 22 22 22 22 23 22 19 20 10 7 8 11 10 10 11 13 14 15 11 7 14 18 17 17 17 18 18 18
18 19 20 21 21 22 23 22 22 20 21 21 23 25 23 21 15 14 13 12 15 16 10 15 13 17 22 21 21 19 18 18 19
19 20 21 22 22 23 23 22 22 21 22 21 20 20 20 21 22 21 21 18 15 13 14 19 21 22 22 24 20 19 19 19 17

GFSFLT1_850_spd_087.txt.gz
Wind_Speed
19 18 18 18 18 18 18 17 17 17 17 17 16 17 13 10 6 11 13 13 13 11 10 9 8 9 9 9 8 6 6 6 7
18 17 17 16 16 16 16 16 16 15 15 14 13 12 8 8 7 10 11 11 11 11 11 10 8 6 5 4 3 3 5 6 7
16 16 15 14 14 13 13 13 13 13 13 12 11 10 7 3 5 7 9 10 10 10 10 9 8 7 5 4 4 5 7 9 10
14 14 13 12 11 10 10 9 9 9 9 8 7 5 4 3 4 6 8 9 9 9 9 9 8 8 7 6 6 7 8 8 9
11 11 10 9 8 7 6 5 5 5 5 5 4 2 1 2 4 7 8 9 9 8 8 8 8 8 8 8 7 7 7 8 8
8 8 7 6 5 4 3 2 2 1 2 2 2 2 0 2 5 8 9 10 10 9 9 8 8 8 8 8 8 8 8 8 8
7 5 4 3 2 2 1 1 1 2 1 1 1 1 3 3 6 8 9 10 11 11 10 10 9 9 9 9 9 9 9 9 8
3 2 2 3 2 2 1 1 1 1 3 4 4 4 4 5 8 8 10 11 11 12 12 10 10 10 10 9 9 9 9 9 8
5 5 4 2 3 2 2 1 3 4 5 6 5 6 7 6 6 9 10 11 11 12 12 13 11 11 11 11 11 10 10 10 9
8 6 4 3 3 4 4 3 4 6 6 7 8 7 7 7 8 10 12 13 13 13 12 12 13 14 13 13 13 12 10 9 9
8 7 7 5 5 5 6 5 5 5 6 7 8 9 9 9 10 12 14 15 14 14 13 14 13 15 15 15 17 15 13 9 11
11 10 9 6 6 6 6 6 7 9 9 9 9 9 9 11 13 15 18 17 18 16 16 15 15 17 18 16 17 17 16 13 12
11 10 9 7 6 6 7 9 9 9 9 9 9 11 14 15 18 18 16 16 17 18 19 15 16 18 16 16 16 17 17 17 17
9 8 8 7 8 9 10 10 10 10 11 12 14 15 17 19 20 19 18 16 18 17 17 18 19 16 14 11 12 15 15 16 16
8 8 9 8 9 11 12 12 12 14 16 17 18 19 20 20 19 17 13 13 13 13 14 14 17 15 16 15 15 15 17 17 19
12 12 10 13 14 15 16 17 17 18 19 21 22 20 20 19 17 14 15 16 11 13 12 16 16 18 15 16 17 18 16 16 17
14 15 16 16 16 17 18 20 21 21 20 19 20 22 19 17 9 7 11 14 14 13 13 17 18 17 16 15 15 15 16 16 16
19 19 20 19 20 21 21 22 23 23 21 20 19 11 6 6 8 8 8 12 14 17 16 18 16 16 17 17 20 20 19 18 16
19 20 21 21 21 22 22 22 22 21 23 20 19 23 23 14 12 11 12 12 11 16 18 14 16 17 21 23 23 24 20 17 16
17 18 20 21 21 22 22 21 20 20 21 19 19 20 18 20 22 19 18 17 15 15 12 14 17 21 22 24 23 20 17 15 13

GFSFLT1_850_spd_090.txt.gz
Wind_Speed
20 20 20 20 20 20 20 19 18 17 16 15 14 12 10 11 10 12 12 12 12 11 10 9 8 9 8 6 5 5 6 7 8
20 19 19 19 18 18 18 16 15 14 13 11 9 9 8 8 8 11 11 11 11 11 10 10 8 6 5 4 5 7 8 9 9
18 17 17 17 16 16 15 14 13 12 10 8 6 6 5 6 7 8 10 10 10 10 10 10 9 8 7 6 7 8 9 10 10
16 16 15 14 13 13 12 11 10 9 8 6 4 3 3 5 4 6 9 11 10 9 10 10 9 9 8 8 8 9 9 9 10
15 14 12 11 10 9 8 8 7 6 6 5 3 3 2 4 4 6 8 10 10 10 10 9 9 9 9 9 9 9 10 9 9
12 11 10 8 7 6 5 4 4 4 4 4 4 4 2 4 5 6 8 9 10 10 10 10 10 9 9 9 10 10 10 10 10
10 9 7 6 5 4 3 3 3 2 2 2 2 3 2 4 6 6 7 9 10 11 10 10 10 10 10 10 10 10 10 11 10
8 6 5 5 4 4 3 2 2 2 1 2 3 3 4 5 6 7 7 9 10 12 11 10 10 10 10 10 10 10 10 10 10
5 5 4 3 4 4 3 3 2 1 2 2 2 4 4 4 5 6 7 8 10 11 12 12 11 11 11 11 10 9 9 8 8
4 5 5 3 3 3 3 2 2 2 4 5 5 6 6 6 7 7 9 10 11 11 11 12 13 14 14 15 14 12 9 8 7
7 8 7 5 4 4 4 4 4 4 6 7 7 8 8 8 8 9 12 13 13 12 11 12 13 14 15 15 16 16 13 10 9
10 9 7 5 5 5 5 6 7 7 9 9 9 8 9 11 11 12 15 15 13 14 13 15 14 13 16 14 14 15 16 16 13
11 11 9 8 7 7 7 7 8 9 10 9 9 12 12 14 14 17 19 17 16 15 15 14 13 13 15 15 14 15 14 14 15
13 11 10 10 8 8 8 9 10 11 11 12 13 15 17 18 19 21 20 18 16 15 17 14 15 15 14 16 17 18 18 16 14
8 9 9 9 8 9 11 12 13 14 16 17 18 20 20 23 23 19 16 15 14 13 11 10 12 15 16 16 15 15 16 17 16
9 7 9 8 12 13 14 16 16 17 18 20 21 23 22 24 20 17 16 14 15 16 13 12 14 15 19 16 15 13 14 15 17
13 14 15 15 15 17 17 18 20 21 20 21 22 24 21 17 12 8 7 9 12 14 13 13 18 17 13 14 14 17 18 17 17
14 16 18 20 19 19 20 22 22 24 23 20 18 12 7 8 8 10 9 7 9 12 14 14 17 13 14 15 17 20 24 22 18
15 21 24 25 25 24 22 25 26 25 25 22 21 25 26 17 11 11 13 15 12 13 14 18 17 14 12 18 21 25 24 16 15
21 23 25 24 24 23 23 23 23 22 22 20 20 19 17 21 23 20 18 18 18 19 19 17 15 14 14 13 24 28 19 14 12

GFSFLT1_850_spd_093.txt.gz
Wind_Speed
20 21 21 21 20 19 18 16 15 14 12 13 13 12 13 13 14 13 13 13 13 13 12 10 9 9 6 4 5 8 10 10 11
21 20 20 19 18 17 16 15 13 12 10 10 9 9 9 9 11 12 12 13 12 12 12 11 10 9 8 8 8 10 11 12 12
20 19 19 18 17 16 14 13 11 9 8 6 6 7 7 7 8 10 12 12 12 11 11 11 11 10 10 10 10 11 12 12 12
19 18 17 16 15 13 12 11 10 7 6 3 3 3 5 6 6 8 9 11 11 11 11 11 11 10 10 10 11 12 12 12 12
17 16 15 14 13 11 10 9 8 6 5 3 1 2 4 5 6 6 8 10 11 11 11 11 10 10 10 11 11 12 12 12 12
15 14 12 11 10 9 8 7 6 5 4 4 3 4 4 5 5 6 7 9 10 11 10 10 10 10 10 11 11 11 12 12 12
12 11 10 9 8 7 6 6 5 5 4 3 3 3 4 5 5 5 6 8 9 10 10 9 10 10 11 11 10 10 11 11 11
12 9 8 7 6 5 4 4 4 4 2 3 4 3 4 5 6 5 6 7 9 10 10 10 10 11 11 11 11 10 10 10 10
10 7 7 7 6 5 4 3 3 3 1 1 1 2 3 4 5 5 6 7 8 9 11 12 12 12 13 13 13 11 10 9 9
7 8 7 6 6 5 4 3 3 3 2 3 3 3 4 5 6 6 7 8 9 9 10 10 13 14 14 14 14 13 11 10 10
7 7 7 6 5 5 5 4 4 3 3 4 6 6 7 7 8 8 9 10 12 11 11 10 13 12 13 12 15 13 14 13 12
8 7 8 7 7 6 5 4 5 5 6 7 7 6 6 10 11 12 14 14 15 13 14 12 13 13 12 14 14 14 13 13 15
11 10 9 9 7 7 6 5 6 8 9 8 7 10 11 13 13 15 17 18 17 16 17 15 11 14 15 15 16 17 19 16 13
14 13 12 11 10 9 8 7 8 8 10 11 12 14 16 18 18 22 22 23 19 18 16 15 14 13 13 15 18 20 19 17 15
12 13 12 11 11 9 7 9 11 12 13 15 15 18 19 20 22 24 20 19 17 14 13 12 12 9 13 15 16 16 17 17 16
9 8 9 8 8 9 12 13 12 15 15 18 20 21 23 23 23 23 19 15 14 14 14 16 10 9 12 14 14 12 13 15 17
17 15 12 13 12 14 14 15 16 17 17 19 22 26 23 15 7 9 8 8 11 10 11 12 11 10 12 10 15 19 20 21 23
22 19 16 16 17 18 17 18 19 20 22 21 18 10 5 7 11 11 12 11 9 10 12 13 13 12 15 12 10 15 21 24 22
17 13 17 22 22 22 23 25 25 24 27 25 23 23 25 21 11 6 9 10 14 15 16 16 15 16 16 15 15 14 19 25 17
22 25 24 26 23 23 24 23 23 24 24 23 21 19 20 22 19 22 20 18 19 21 21 19 17 16 16 14 15 19 21 22 14

GFSFLT1_850_spd_096.txt.gz
Wind_Speed
19 21 21 20 20 19 17 16 15 15 16 14 14 14 14 14 14 14 15 15 15 14 14 12 9 10 9 9 12 14 14 14 14
21 21 21 20 18 17 16 15 13 12 11 11 10 10 11 11 13 14 13 14 14 13 13 13 12 11 11 12 13 14 14 14 14
21 21 20 18 17 16 14 13 11 9 7 8 8 8 9 9 10 11 12 13 13 12 12 12 12 12 12 13 13 13 14 14 14
20 19 18 17 16 14 13 11 9 7 5 5 5 6 7 7 8 9 10 11 12 12 11 12 12 12 11 11 11 12 13 13 13
18 17 16 15 13 12 10 10 8 5 2 2 3 4 5 6 6 7 8 10 11 11 10 11 11 11 11 11 11 11 12 12 12
15 14 13 12 11 9 9 8 7 5 3 1 2 3 4 5 5 5 6 8 9 10 10 10 10 11 11 11 11 11 11 11 11
13 13 12 10 9 8 7 6 5 4 3 2 3 2 2 4 4 3 4 6 8 8 10 10 10 11 11 11 10 10 10 10 10
12 11 10 9 8 7 6 5 6 5 4 3 3 3 3 2 3 3 4 5 7 8 9 10 10 11 12 11 10 10 10 9 9
11 10 9 8 7 7 6 5 5 5 3 2 2 2 2 2 3 3 4 5 6 7 8 10 10 11 12 11 11 11 10 9 8
10 9 8 8 8 6 6 5 5 4 4 3 2 2 2 3 4 4 5 6 7 8 9 10 10 12 12 10 13 12 12 11 10
9 9 9 8 7 7 6 6 5 5 4 3 3 3 4 4 5 6 7 9 10 11 9 10 10 11 12 11 13 12 11 12 13
10 10 10 8 8 8 7 7 6 5 5 5 5 4 5 8 10 10 10 12 15 14 14 13 10 13 12 11 13 13 15 17 14
12 11 9 9 10 9 8 7 6 5 5 5 5 7 9 9 12 13 14 18 16 18 17 13 12 14 13 12 12 17 19 19 14
12 13 11 11 11 10 8 7 5 4 6 8 9 12 12 14 16 17 19 21 20 17 14 14 12 11 11 11 15 18 21 18 17
12 12 14 12 13 11 8 6 6 9 10 11 13 14 16 18 23 23 23 20 18 15 12 11 11 11 10 10 13 16 17 17 16
12 12 14 13 10 7 7 9 11 11 11 13 16 18 21 24 23 17 13 11 11 10 11 12 12 10 12 11 12 12 16 16 17
18 14 13 12 10 10 11 12 11 12 14 15 18 20 19 7 3 7 10 9 9 10 11 10 12 11 11 12 13 13 14 17 19
24 24 21 19 15 13 15 16 16 17 19 19 15 10 6 7 14 9 12 9 10 8 9 10 13 14 14 14 15 13 14 19 22
29 29 26 19 14 14 18 19 20 23 23 21 20 21 23 14 9 7 7 6 7 11 14 15 16 16 17 17 17 15 15 19 22
29 27 24 19 17 19 20 17 23 21 20 19 18 17 17 18 19 20 15 15 15 14 17 19 20 17 20 17 16 16 16 21 20

GFSFLT1_850_spd_099.txt.gz
Wind_Speed
20 21 21 21 21 20 18 18 17 17 15 16 15 15 15 15 15 15 15 15 15 14 12 10 10 10 11 12 13 14 14 14 14
22 22 21 20 19 18 16 15 15 15 13 12 12 12 13 12 13 13 13 14 13 13 12 11 11 10 11 12 12 13 13 14 13
23 22 21 19 17 15 14 13 11 11 10 9 10 10 10 10 10 11 11 11 11 11 11 11 11 11 11 11 12 12 12 12 12
22 21 19 18 16 14 13 11 9 7 7 7 7 7 8 7 8 9 9 10 10 10 10 10 10 11 11 11 11 11 12 12 12
21 20 18 16 14 12 11 9 7 6 4 4 4 4 5 6 5 6 7 8 9 9 9 9 9 10 10 10 10 10 11 11 11
19 18 17 14 12 11 9 7 6 3 2 1 1 2 3 3 3 3 4 6 6 7 8 8 8 9 9 9 9 10 10 9 9
18 17 16 14 12 10 8 7 6 4 2 1 1 1 1 2 3 1 2 4 5 6 7 8 8 9 8 9 8 9 9 8 8
16 15 14 12 10 9 8 7 7 6 5 3 3 2 1 1 1 1 1 2 4 6 7 7 8 8 8 10 10 9 9 8 8
14 13 12 11 10 9 8 8 7 7 5 3 2 2 2 1 1 2 2 3 5 6 8 9 9 9 10 8 8 10 9 8 9
13 12 10 10 10 9 9 8 8 7 6 4 3 3 3 3 3 3 4 4 5 7 8 8 10 10 9 10 10 10 10 10 10
13 10 10 9 9 9 9 8 7 6 5 4 3 4 4 2 4 6 7 7 8 9 9 11 11 12 10 10 11 7 9 13 15
13 11 10 10 9 9 9 8 7 6 5 4 4 3 2 6 7 8 9 9 12 14 13 12 10 14 11 13 12 7 12 18 17
14 12 11 12 12 11 9 8 8 6 4 2 2 4 7 8 11 11 14 14 16 15 16 16 12 13 12 11 10 10 16 20 17
15 14 13 13 12 11 11 10 8 4 2 4 7 9 11 11 15 17 20 20 20 19 15 12 12 9 9 11 9 11 15 18 16
15 13 15 16 14 14 12 10 7 4 6 8 11 12 12 16 19 21 23 19 17 15 12 10 10 11 11 13 13 13 14 13 15
17 13 15 18 16 13 12 10 8 9 9 12 14 14 18 20 19 14 8 12 8 7 8 10 12 10 11 11 12 11 14 14 16
23 20 16 17 16 15 14 13 12 9 9 13 14 11 11 9 6 7 10 9 11 11 10 9 10 10 12 11 13 13 14 15 17
27 27 21 18 17 19 18 15 14 13 14 15 14 6 5 9 13 12 12 12 11 9 7 7 9 11 14 14 15 18 15 16 18
29 32 31 28 27 21 17 14 16 16 15 16 19 19 19 10 7 9 9 6 9 8 10 13 14 15 16 16 18 19 17 16 16
32 34 32 25 22 19 13 14 15 15 15 19 17 16 16 16 16 12 14 12 12 14 15 15 17 17 20 17 19 17 15 17 17

GFSFLT1_850_spd_102.txt.gz
Wind_Speed
21 23 23 21 19 19 19 16 16 15 15 14 14 14 14 14 12 13 13 11 11 10 8 8 8 9 9 10 11 12 12 11 11
24 24 23 22 21 19 18 16 15 13 12 12 11 12 11 11 11 11 10 11 10 9 9 9 9 9 9 10 11 11 11 11 11
24 24 23 22 20 17 16 15 13 11 10 10 9 9 9 9 8 9 8 8 9 8 8 8 8 9 10 10 10 11 11 11 10
24 24 23 21 18 17 14 13 11 9 8 7 7 7 7 5 6 6 5 7 8 8 8 8 8 9 9 9 10 10 10 10 10
24 23 21 19 17 15 13 10 8 7 6 5 4 4 4 3 4 4 4 5 6 7 7 7 7 7 7 8 8 9 9 10 9
21 21 19 16 15 13 11 10 7 5 4 3 3 3 2 1 1 1 1 3 4 5 6 6 6 6 7 7 8 8 9 8 8
16 20 18 16 14 12 11 9 8 6 5 3 2 2 2 1 1 2 1 1 2 3 5 6 6 7 8 9 9 9 8 7 7
19 18 16 14 13 11 10 8 7 7 5 4 3 3 3 2 2 2 2 2 2 3 4 5 6 7 7 7 7 8 8 8 7
18 17 16 15 13 11 10 8 8 8 6 4 4 3 3 2 2 3 4 4 4 4 5 6 9 9 7 6 7 8 8 7 9
18 16 15 14 13 12 10 9 8 8 7 5 5 4 4 3 4 3 5 5 5 5 7 7 9 11 10 10 7 7 6 9 12
17 16 15 14 14 13 12 10 9 9 8 6 5 4 4 4 4 4 6 7 7 7 9 9 9 13 11 10 10 9 8 11 15
17 16 14 14 14 14 13 13 11 11 9 7 6 6 6 6 7 7 8 10 12 13 11 12 12 14 13 12 12 4 8 12 17
16 15 12 13 14 14 14 13 12 11 9 7 6 5 7 8 8 11 10 11 13 15 18 16 16 14 12 15 8 5 8 11 13
17 15 12 14 15 15 15 14 11 10 9 8 8 7 8 10 10 10 13 15 21 17 17 16 14 13 13 13 10 10 10 13 14
17 15 14 15 16 16 16 14 14 11 9 8 8 7 8 8 11 15 19 18 13 12 12 12 13 12 13 14 14 12 12 14 14
17 15 16 17 20 19 17 16 14 13 10 9 7 8 10 14 20 17 12 13 11 8 7 7 12 13 13 15 13 12 12 15 16
18 20 20 19 19 21 19 19 17 13 11 8 7 7 7 8 7 8 10 13 13 10 8 10 11 12 13 12 14 14 14 17 17
23 24 27 26 23 22 23 22 19 13 13 12 7 5 4 5 9 11 14 13 13 12 10 9 9 11 12 13 15 15 17 18 18
23 21 25 27 28 28 29 28 22 17 13 13 13 15 15 9 8 7 11 12 10 11 10 12 12 14 15 15 16 18 20 19 18
30 26 26 22 21 21 16 17 16 12 11 12 13 13 13 14 14 14 10 12 15 14 15 16 18 17 18 18 18 21 18 18 15

GFSFLT1_850_spd_105.txt.gz
Wind_Speed
21 25 23 21 20 20 18 18 16 15 15 15 14 14 13 14 10 11 9 8 8 7 7 7 9 9 10 11 11 12 12 12 12
23 24 24 21 20 21 18 17 15 13 12 12 12 12 13 9 9 8 6 8 8 8 8 8 9 9 10 10 11 12 12 12 12
24 22 22 22 22 19 18 15 13 11 10 10 10 10 11 7 7 6 7 7 7 8 7 8 8 9 9 10 11 11 11 11 11
23 21 21 21 21 18 17 14 12 10 9 8 8 8 10 8 5 6 3 5 6 7 7 8 8 8 9 9 10 10 10 10 10
21 19 18 18 18 17 15 13 10 9 8 6 5 6 7 3 4 4 2 3 5 6 6 6 6 7 8 8 9 9 10 9 9
21 18 18 18 17 15 13 11 9 7 5 4 3 4 5 1 2 2 0 1 3 4 5 5 6 6 7 7 8 8 8 8 7
15 20 19 17 16 14 12 10 8 6 2 3 3 3 3 2 2 6 2 1 1 2 3 4 5 7 7 7 7 8 7 6 7
21 20 18 16 14 12 10 9 8 4 6 6 2 5 3 2 3 4 3 3 2 2 3 5 6 8 5 7 6 8 8 7 8
15 17 15 13 13 8 8 6 7 9 7 5 4 4 4 3 3 7 4 4 4 3 4 6 9 9 7 7 6 7 7 8 10
16 14 14 13 12 11 10 10 10 8 7 7 7 6 5 4 5 4 7 5 6 5 5 6 9 12 10 10 9 8 5 7 11
18 16 13 12 12 11 10 8 9 8 9 7 7 7 6 5 5 3 7 9 7 8 8 8 9 13 11 10 10 8 5 8 12
17 14 14 13 12 11 10 10 10 9 8 8 7 6 6 5 5 5 6 9 10 10 12 13 12 15 15 13 12 7 6 8 12
16 17 15 12 11 11 10 10 9 8 8 7 7 7 6 6 7 7 7 7 8 11 15 17 15 13 16 13 10 6 7 8 11
15 14 10 10 11 11 10 10 10 9 9 8 8 7 7 8 7 6 8 11 13 12 12 16 12 11 10 12 11 9 9 10 13
16 13 12 11 10 11 11 12 11 11 9 11 9 8 9 8 7 10 9 10 10 10 7 8 8 6 9 13 13 12 10 10 13
16 13 14 16 15 13 13 13 13 13 13 11 10 10 9 10 10 9 5 8 10 8 7 4 9 6 10 13 13 12 11 11 14
15 15 14 14 14 15 15 16 16 16 16 12 9 5 7 10 8 5 7 9 11 10 6 7 9 8 12 12 11 11 12 14 17
17 14 18 18 18 16 16 18 21 21 18 16 9 5 5 4 9 8 8 9 10 11 10 10 9 10 11 13 13 13 13 16 17
13 12 14 17 17 22 25 21 27 24 19 16 14 9 5 3 7 10 10 11 11 11 11 12 12 13 13 14 15 15 15 17 17
21 19 22 25 22 30 27 24 22 22 19 16 13 12 8 10 16 16 11 14 14 14 13 13 15 17 17 18 17 16 16 13 14

GFSFLT1_850_spd_108.txt.gz
Wind_Speed
21 22 19 19 20 21 20 19 18 17 16 15 15 15 14 14 10 9 7 8 8 8 9 9 10 11 12 12 12 12 12 12 12
26 23 21 19 20 19 19 18 16 15 14 13 13 13 13 12 5 8 8 8 8 8 9 9 10 10 10 11 11 12 12 12 11
25 23 20 18 17 17 16 15 14 13 12 12 11 12 13 9 3 7 6 7 8 8 8 8 9 9 9 10 11 12 11 11 11
24 23 20 18 18 15 15 14 12 11 10 10 10 11 12 6 7 3 5 5 6 6 6 7 7 8 9 9 10 10 11 11 10
23 21 19 17 17 14 15 12 11 9 8 7 8 9 8 5 7 2 2 3 4 5 5 6 7 8 9 9 10 10 10 10 10
23 21 18 17 17 14 14 11 9 8 6 5 5 7 8 4 2 3 1 1 2 3 4 6 7 8 9 10 10 10 9 9 9
22 21 19 17 16 14 13 10 8 6 5 3 3 5 4 4 6 6 3 2 1 2 3 5 6 7 7 8 9 10 10 9 9
22 23 22 19 17 13 11 10 8 5 2 1 3 3 6 3 6 4 3 2 2 2 3 4 5 7 5 6 7 8 8 8 9
23 21 21 17 15 12 10 8 7 7 8 8 4 6 4 6 7 5 6 4 3 3 3 5 6 7 6 7 6 5 4 5 9
21 19 18 16 13 10 7 5 4 8 6 5 6 6 3 2 6 7 8 8 6 5 4 4 7 10 8 6 6 6 5 5 9
19 17 17 14 13 13 10 11 11 4 4 7 5 5 6 7 7 7 7 8 9 7 6 7 6 11 11 9 7 7 6 5 9
24 22 18 16 17 15 14 10 7 8 9 7 8 6 5 7 5 6 5 11 7 7 9 9 10 12 13 11 10 6 4 4 7
23 20 19 17 16 13 12 12 14 14 13 10 7 8 8 8 7 9 9 6 8 11 16 14 14 12 10 11 10 6 5 5 7
21 21 17 14 12 11 13 12 11 9 10 10 9 10 9 8 10 7 9 13 17 17 15 13 13 9 8 10 10 7 7 8 8
20 18 15 10 12 12 10 12 12 13 11 9 11 15 12 12 11 11 14 19 16 10 10 9 9 4 6 10 11 9 10 10 10
20 18 14 14 12 9 12 11 14 13 16 13 17 13 11 10 13 17 17 14 10 7 8 8 5 6 7 13 12 10 10 11 13
18 18 20 20 20 18 12 11 14 14 16 17 16 13 14 18 16 11 8 11 12 11 7 9 11 9 7 11 12 13 12 11 11
20 19 17 17 15 14 15 17 18 19 20 20 14 9 8 12 10 8 11 9 12 13 10 10 11 11 9 10 12 13 13 11 12
19 19 15 15 13 15 13 10 11 17 22 23 26 15 12 8 7 8 9 12 12 15 13 12 11 13 12 13 12 14 14 13 13
17 16 15 14 19 15 15 14 11 15 22 22 27 22 17 23 16 13 15 16 13 13 13 14 15 15 15 16 14 14 13 11 9

GFSFLT1_850_spd_111.txt.gz
Wind_Speed
19 18 19 17 18 18 18 18 18 18 18 18 16 15 13 10 4 6 7 7 8 9 10 10 10 11 12 13 13 13 13 12 12
21 19 19 20 19 18 18 17 17 17 17 15 13 12 10 10 8 7 7 8 8 8 9 9 10 10 11 11 11 12 12 11 11
24 22 19 21 19 17 17 16 16 15 15 14 12 11 8 8 8 7 6 7 7 7 8 8 9 9 10 10 10 11 10 10 10
25 22 21 22 18 18 16 14 13 13 12 12 11 9 7 5 6 7 6 5 6 6 6 7 8 9 9 9 10 9 9 9 9
23 22 24 20 18 17 15 13 12 11 11 10 11 9 7 3 3 4 4 3 4 5 5 6 7 8 9 9 10 10 10 9 9
27 23 22 21 19 18 15 13 11 10 9 8 9 7 6 3 2 2 3 2 2 3 4 5 6 8 8 8 9 9 8 8 8
28 24 22 20 20 18 16 12 10 9 8 8 7 7 5 3 3 3 3 3 2 2 3 4 5 7 5 6 7 8 7 7 9
28 26 24 22 23 20 17 14 10 8 8 8 8 6 5 3 3 3 3 3 3 3 3 3 4 5 3 5 5 5 5 6 7
30 28 26 24 21 17 14 12 10 9 8 7 6 2 2 8 3 3 4 4 4 4 4 4 5 7 5 6 3 3 4 4 6
30 28 26 21 18 16 14 12 11 9 8 7 6 5 2 2 3 5 5 5 6 6 5 4 6 9 7 7 6 5 5 4 5
28 25 22 20 18 16 14 12 10 6 7 10 6 8 5 6 6 7 6 7 9 5 4 4 7 10 11 10 9 8 6 5 5
25 23 24 21 18 14 12 10 11 11 10 8 10 8 10 7 6 8 7 9 8 6 6 9 11 10 12 13 11 9 6 6 6
26 25 24 21 19 17 17 15 14 13 13 13 12 11 8 8 9 9 9 9 9 9 14 17 16 13 13 11 12 9 8 7 7
29 26 23 22 20 18 17 16 17 16 16 14 12 9 9 10 10 12 15 13 13 16 19 16 13 11 8 10 12 9 9 9 9
29 27 24 21 19 18 17 16 15 13 11 12 13 10 15 13 13 14 13 15 19 22 16 11 10 7 5 8 12 10 9 10 11
27 26 23 20 20 16 13 15 16 14 14 12 14 14 15 18 17 18 18 20 21 13 11 9 8 6 6 10 11 10 11 13 13
26 25 25 21 17 15 14 14 15 14 13 18 14 18 20 20 20 20 17 13 11 10 10 10 9 6 5 10 12 14 15 14 14
25 26 25 24 23 23 20 19 18 16 14 19 18 9 11 21 22 21 15 12 9 7 9 11 11 10 9 8 11 13 15 14 15
27 25 27 28 28 27 23 21 18 17 19 19 20 23 11 10 11 18 15 12 11 12 11 12 13 13 12 12 12 12 14 14 14
25 23 22 20 20 17 12 12 12 15 15 14 19 24 33 19 16 15 19 18 14 14 14 14 13 15 15 14 14 15 15 13 11

GFSFLT1_850_spd_114.txt.gz
Wind_Speed
17 16 18 17 18 19 21 21 22 21 17 14 10 10 9 8 7 6 7 7 9 9 10 11 11 11 11 12 11 12 12 11 10
19 18 17 17 19 19 19 19 20 19 16 14 11 9 9 7 7 7 7 8 8 9 9 9 9 10 10 10 11 11 11 10 10
18 18 18 19 19 19 18 18 18 18 15 11 9 9 9 9 8 7 7 7 7 7 7 8 8 9 10 9 10 10 10 10 10
20 20 18 19 20 19 18 17 16 15 13 11 8 6 7 7 8 7 5 6 6 6 6 7 8 9 9 9 10 10 9 9 9
24 20 19 20 20 20 18 16 15 13 12 10 8 5 4 6 5 5 5 4 4 4 5 6 7 8 8 8 9 9 8 8 9
24 23 22 21 20 18 16 15 14 13 12 11 9 6 4 4 4 2 3 2 2 3 4 4 5 6 6 6 7 8 8 8 9
26 25 26 22 20 19 16 14 14 13 12 12 10 8 5 2 1 1 2 1 2 2 3 3 4 5 3 5 6 6 6 7 9
31 27 26 24 23 21 19 17 14 12 11 11 12 9 6 4 1 2 2 2 3 4 3 4 4 4 3 5 4 4 4 6 7
34 30 28 26 26 24 21 17 14 13 12 11 12 8 6 6 3 1 3 3 3 5 4 4 6 6 5 6 5 5 5 5 7
37 33 30 29 29 24 21 18 16 14 12 12 12 10 5 6 6 4 3 5 5 5 4 4 5 7 8 8 8 6 6 5 5
39 37 35 32 27 23 20 18 16 14 12 13 13 10 9 8 7 5 4 6 9 6 4 4 7 9 11 11 10 9 7 5 5
39 37 34 27 25 23 20 19 16 15 14 14 12 11 10 11 7 5 7 7 9 5 8 8 10 13 13 12 13 10 8 6 6
33 32 30 28 26 25 23 20 18 16 15 15 14 13 11 11 12 11 11 11 9 10 13 15 17 16 14 13 13 9 7 7 8
31 31 29 29 27 26 23 20 17 17 18 16 14 14 15 10 12 14 15 13 15 15 16 19 20 14 11 9 10 10 9 9 9
30 29 28 30 28 25 23 21 20 21 18 16 16 16 15 15 16 16 16 15 15 18 20 22 15 11 7 6 10 11 10 10 10
32 30 30 30 28 27 24 23 22 22 18 16 18 18 14 16 18 17 19 20 20 21 22 15 12 7 7 11 12 9 10 11 13
34 32 33 31 30 27 25 25 26 22 20 20 17 17 19 20 22 21 19 21 19 17 14 12 9 8 7 8 10 12 13 14 15
34 35 35 32 30 29 28 26 25 25 24 23 19 11 12 21 24 24 22 24 21 14 10 9 8 9 9 9 10 12 13 15 13
34 32 31 32 32 31 29 28 28 25 23 25 27 26 12 13 11 24 27 23 21 14 13 11 9 10 10 11 11 10 12 14 13
33 30 32 33 34 31 32 29 22 22 23 22 21 22 25 28 24 17 25 23 22 19 16 14 13 13 12 11 12 13 13 14 11

GFSFLT1_850_spd_117.txt.gz
Wind_Speed
11 15 17 17 16 17 21 20 19 16 13 11 11 10 8 6 6 6 6 7 9 9 9 10 11 10 10 11 11 11 11 11 11
13 14 16 15 16 19 20 19 17 14 10 8 7 7 6 5 5 6 6 7 8 8 8 9 9 9 10 10 10 10 11 11 11
16 15 15 17 19 19 18 18 16 13 10 7 7 7 6 7 6 5 5 6 6 7 7 8 8 9 9 9 10 11 11 11 11
18 17 17 17 19 19 18 17 15 14 11 9 8 7 6 6 6 5 4 4 5 5 6 7 7 7 8 9 10 10 10 10 10
19 18 19 19 20 19 18 17 16 14 12 8 7 6 5 6 4 4 3 3 3 3 4 5 6 6 6 7 8 9 9 9 10
22 21 21 21 21 20 19 17 16 14 13 11 8 6 5 4 3 2 2 1 2 2 3 3 4 4 4 5 7 6 7 8 9
25 23 22 22 22 21 19 18 17 15 14 12 10 7 5 5 3 2 0 1 2 3 3 3 3 4 3 5 5 6 5 6 7
27 26 26 26 24 23 21 20 18 16 14 13 13 10 8 6 4 3 1 1 3 4 4 4 4 4 4 5 5 5 5 6 7
31 31 30 30 29 26 24 21 18 17 16 15 15 13 10 8 6 3 2 2 3 5 4 6 6 6 5 7 6 5 6 6 6
35 34 31 31 31 29 26 22 20 18 17 16 15 14 11 10 8 6 3 3 2 6 5 5 7 7 8 9 9 9 8 7 5
37 37 34 34 34 31 27 24 21 18 17 16 16 15 13 10 8 7 5 4 5 8 6 6 5 8 10 11 12 10 9 8 7
39 39 40 39 35 32 27 25 22 21 20 18 19 17 15 13 11 8 7 7 7 8 7 8 10 13 16 12 14 12 10 9 8
45 42 43 41 37 32 29 26 24 22 21 18 19 18 16 15 13 12 11 10 11 12 11 14 15 16 18 14 12 13 10 9 9
41 40 43 42 36 32 31 28 26 23 22 20 19 18 18 16 16 15 15 14 14 16 15 17 18 21 16 12 10 14 12 11 10
39 43 41 40 35 33 32 30 26 24 21 20 19 19 18 19 20 18 16 16 14 16 17 18 19 18 13 9 9 15 11 10 10
34 39 33 34 34 35 33 31 28 26 22 21 21 21 21 23 23 22 20 19 19 18 20 19 14 13 10 10 13 11 9 10 12
43 38 36 34 35 36 34 31 29 27 25 26 22 21 25 27 22 23 23 23 21 20 19 15 11 11 9 8 10 11 13 15 15
37 38 37 34 35 37 34 32 31 30 28 29 19 9 12 23 28 27 26 25 25 23 21 15 10 10 10 11 12 14 14 16 16
32 35 36 32 37 35 32 31 31 31 31 31 31 23 13 15 12 27 29 29 28 24 20 18 14 12 11 11 13 14 14 14 14
31 33 31 34 35 34 33 34 34 35 33 35 33 32 31 23 18 17 22 29 30 26 22 20 17 15 13 16 13 12 13 14 13